GFSWCAN_prec_cthk_021.txt.gz
RH
65 65 64 65 71 75 78 76 85 88 93 97 96 96 94 84 84 90 82 61 55 53 51 42 43 41 41 46 54 48 47 45 40 41 46 43 45 39 36 32 37 38 43 49 45 55 49 26 28 31 39 32 33 34
71 72 73 73 76 83 88 86 86 98 97 94 97 93 90 83 81 88 76 53 53 58 52 45 40 37 42 46 48 46 42 40 39 40 43 47 47 45 37 41 34 41 37 41 34 39 38 30 31 33 34 33 35 38
86 91 95 94 98 98 98 97 97 97 97 90 90 86 82 79 78 82 84 58 50 52 53 47 47 38 35 38 39 44 44 40 38 39 41 46 49 42 48 40 39 36 35 35 34 32 34 36 34 36 38 40 41 44
95 96 97 96 90 87 90 93 88 85 88 85 80 75 74 72 74 86 86 58 54 47 55 59 49 44 36 33 34 42 41 40 40 44 45 45 49 40 45 42 40 39 39 39 39 34 37 39 46 44 44 49 55 60
98 97 97 96 96 96 92 88 88 86 83 76 71 68 66 67 73 81 64 52 49 50 57 60 51 46 42 36 37 40 42 44 44 49 49 48 43 43 46 44 43 41 41 43 44 44 42 43 49 50 56 60 62 65
98 99 98 97 92 89 88 85 81 76 71 69 67 64 62 65 70 75 61 57 52 58 71 65 57 53 54 46 44 48 49 49 50 51 51 48 45 47 54 47 46 42 41 41 42 46 49 53 54 56 57 59 59 59
92 93 94 94 92 89 82 77 74 72 70 68 66 67 66 70 74 68 62 58 65 76 77 68 61 58 59 57 57 55 55 59 57 56 56 54 50 49 53 49 49 43 44 47 49 54 61 58 60 60 61 63 66 73
93 93 93 92 95 96 89 81 78 75 72 71 71 70 68 74 73 69 64 74 82 87 90 81 73 67 63 64 66 62 61 60 61 61 59 59 53 55 55 51 49 51 54 57 56 57 59 61 64 67 72 76 81 82
88 87 88 89 92 93 88 85 82 79 71 69 66 64 67 75 69 55 64 75 88 82 77 77 83 80 79 74 71 71 67 69 66 69 68 62 61 58 55 56 58 59 60 62 62 62 63 67 71 77 81 83 83 80
89 88 88 87 92 94 90 88 85 73 71 70 71 73 79 78 76 78 77 89 81 76 72 69 74 75 74 78 78 75 75 78 75 72 66 64 62 60 64 65 66 65 66 68 69 71 77 81 84 84 82 79 76 76
93 92 92 86 86 88 87 87 85 85 79 73 73 70 77 86 93 93 91 86 81 79 73 72 70 70 70 73 75 73 69 66 67 65 67 69 68 67 72 71 69 70 74 79 82 88 90 86 83 81 79 75 69 63
95 93 92 89 88 88 89 84 85 84 80 81 81 92 93 91 88 83 84 82 79 77 73 72 69 65 64 64 63 66 67 69 74 71 76 70 71 75 72 71 72 77 80 83 86 85 84 83 79 72 65 59 54 51
95 93 92 90 91 92 89 88 83 85 88 85 85 84 87 87 89 84 81 77 74 71 71 70 68 68 68 68 74 78 83 86 79 82 77 75 74 72 77 82 85 87 87 86 85 81 78 71 62 60 56 50 45 41
89 90 89 89 91 94 90 90 89 90 85 85 91 94 92 91 88 86 84 82 83 83 81 80 81 82 84 84 87 88 88 88 89 86 76 75 78 83 88 92 93 90 84 82 79 69 64 63 60 54 48 44 43 42
90 89 89 90 91 94 96 95 93 90 92 95 94 98 95 92 90 88 88 89 89 87 86 84 84 84 86 89 88 90 91 90 85 80 82 87 93 96 97 95 92 87 85 83 76 68 63 59 54 49 47 45 41 38
86 89 90 91 92 93 93 95 95 95 96 97 97 96 95 95 94 93 94 92 92 90 87 85 84 84 84 87 88 88 89 86 88 90 94 97 98 98 97 95 94 93 85 80 72 65 61 57 51 43 43 42 43 43
67 71 82 84 84 87 95 94 94 96 97 95 96 96 95 92 91 91 91 91 90 89 89 89 90 91 94 96 96 95 95 96 97 97 98 98 97 95 96 95 85 80 78 72 67 60 51 49 47 47 48 50 49 50
49 54 62 66 69 74 73 76 90 92 96 97 96 97 98 97 98 98 97 97 98 98 98 98 98 98 98 98 98 98 98 98 98 96 94 89 88 88 84 77 74 72 67 61 59 59 58 55 55 57 59 60 60 60
32 38 41 43 44 45 51 63 71 85 91 90 92 92 91 91 91 89 88 88 89 90 93 96 97 97 98 98 98 96 94 93 89 84 77 71 68 67 68 68 65 65 68 68 68 67 64 60 62 66 67 65 66 71
18 19 20 23 24 30 44 51 55 63 69 74 76 75 73 73 70 69 69 66 68 67 70 74 77 77 75 71 69 64 62 62 60 60 61 62 64 66 68 71 74 75 75 74 73 72 71 74 76 74 73 72 75 72
12 13 13 12 15 21 33 40 43 51 53 55 56 56 54 55 52 53 55 54 53 58 58 58 58 58 58 57 55 58 61 61 62 64 67 69 70 72 75 78 79 80 81 81 84 84 82 83 81 80 77 78 71 71
7 7 7 9 13 19 25 31 34 36 39 40 41 41 42 42 42 40 43 46 48 50 51 51 52 52 53 56 59 61 64 67 69 72 76 78 79 80 81 81 83 85 86 88 89 89 89 87 83 79 74 72 71 62
8 8 10 11 13 20 29 31 32 36 38 39 41 40 41 42 42 43 46 49 52 53 53 53 52 54 57 61 64 68 70 71 72 76 81 85 83 85 89 89 91 93 96 96 93 90 86 82 78 72 73 65 51 43
12 13 17 22 25 29 28 32 33 35 40 43 44 48 48 48 49 50 52 53 58 59 60 61 62 62 63 66 68 70 76 76 86 87 89 94 96 97 98 98 98 98 96 92 88 83 80 77 70 61 48 42 37 33
19 30 30 33 36 37 42 43 44 46 48 50 51 53 53 56 56 56 58 60 61 62 63 66 68 70 73 77 80 82 87 89 93 97 97 98 98 97 97 96 92 88 84 81 78 71 61 46 41 38 33 33 32 32
35 41 40 43 45 45 47 50 51 53 54 57 59 60 62 63 63 65 66 69 68 67 68 70 74 78 80 83 86 90 94 95 97 97 97 97 95 93 89 86 83 78 61 51 42 37 34 31 28 28 32 33 33 34
43 45 47 47 49 49 54 58 60 62 64 66 68 69 71 72 73 75 76 76 76 78 79 80 82 83 85 87 90 93 94 95 96 93 86 77 70 65 58 51 46 43 38 33 28 27 27 28 30 33 36 37 39 40
49 52 52 55 57 60 61 64 67 69 72 72 74 74 74 76 78 79 78 76 76 76 77 77 77 77 77 77 77 77 74 66 60 55 49 47 45 45 45 42 39 35 31 30 30 31 32 34 38 40 40 42 43 44
60 61 61 61 61 63 64 65 64 65 65 64 64 63 65 67 67 68 69 70 69 68 67 66 66 67 67 64 59 54 48 45 48 48 53 55 54 51 43 37 34 32 33 36 38 40 41 40 41 41 41 44 46 48
57 57 54 52 52 52 53 54 54 54 54 55 57 59 61 63 64 64 64 63 62 60 59 59 60 61 60 59 57 50 51 53 55 52 50 49 45 39 36 39 39 41 41 43 43 45 46 45 45 47 48 49 49 49
52 51 49 48 48 49 49 49 49 49 50 52 54 55 57 58 57 57 58 58 58 58 59 61 58 58 56 55 57 60 64 57 53 48 43 40 39 40 44 39 37 36 36 38 39 41 43 43 48 49 49 49 48 47
48 48 46 44 47 43 41 44 46 46 46 46 48 49 51 53 54 56 58 61 64 65 63 66 67 60 61 62 62 59 55 50 46 44 42 38 34 33 33 35 37 38 39 38 38 41 42 41 42 45 47 47 44 43
41 41 40 41 41 43 44 42 44 46 47 49 52 55 57 60 62 65 66 67 67 66 63 61 63 65 64 62 57 53 49 45 41 37 34 34 34 36 39 41 42 43 43 43 43 45 46 47 46 47 46 46 46 45

GFSWCAN_prec_cthk_024.txt.gz
RH
91 84 78 75 80 75 68 64 69 69 70 63 46 69 88 95 84 85 84 92 91 79 64 66 59 47 57 72 69 58 55 49 49 48 48 43 48 42 37 34 39 39 47 53 52 62 55 29 29 32 40 36 32 32
65 65 65 62 65 61 59 61 60 67 66 55 45 78 88 92 88 83 91 79 91 98 74 64 61 51 51 67 53 51 47 44 42 44 41 47 49 48 39 42 32 43 38 45 39 44 36 33 32 32 33 33 33 35
47 50 56 57 53 53 58 67 68 68 64 59 73 83 90 85 82 85 91 62 75 80 69 60 66 53 48 49 55 59 53 52 45 44 43 46 48 43 47 40 39 36 35 37 37 29 35 37 35 37 38 39 40 42
61 61 67 74 74 76 78 71 62 57 73 82 86 91 80 87 85 93 95 95 95 76 70 63 56 49 43 44 46 48 56 50 47 45 44 44 47 39 46 40 45 40 39 36 37 35 37 39 44 45 43 45 47 51
88 91 92 95 94 90 91 88 86 86 87 87 79 75 85 92 92 97 93 89 82 60 60 64 56 50 41 36 38 44 47 47 48 49 47 49 44 45 47 43 42 38 38 42 46 45 41 46 46 44 46 47 50 55
98 99 99 97 94 94 90 96 90 87 85 85 85 94 90 87 90 97 98 84 69 60 54 62 62 54 46 42 38 39 44 47 51 50 52 47 46 47 51 48 41 42 41 42 45 45 45 45 44 46 50 54 56 58
98 98 96 92 94 93 93 93 93 92 93 96 93 89 87 89 92 95 90 74 68 61 60 67 66 61 58 50 48 46 46 53 54 51 54 51 50 53 54 52 47 44 43 43 41 44 52 54 55 57 57 60 61 62
99 99 99 98 94 92 89 90 90 88 86 87 89 89 90 89 95 93 79 69 64 63 64 76 72 65 61 64 58 53 59 61 62 58 58 61 60 60 59 52 49 47 46 46 48 53 57 59 62 64 65 65 67 71
97 96 94 90 89 89 88 85 83 82 84 84 86 86 91 95 97 91 78 72 64 59 83 86 75 69 65 67 63 62 64 69 63 66 68 66 69 65 58 54 51 52 55 57 59 60 64 66 68 69 70 74 78 80
99 95 94 90 86 82 79 80 82 82 81 82 82 86 96 96 94 89 82 75 71 83 93 84 81 74 65 69 71 69 69 72 75 73 72 71 69 64 63 61 61 63 65 65 67 70 73 73 75 79 83 85 81 79
96 96 95 94 92 90 90 88 84 86 89 89 87 93 98 93 89 87 84 79 85 96 88 85 89 85 79 78 77 83 84 84 81 78 77 74 71 68 65 66 68 70 72 72 72 74 77 81 85 87 85 80 74 66
92 93 94 92 92 95 93 95 95 93 89 83 79 84 88 92 93 89 80 85 95 95 87 82 80 81 82 82 86 89 85 82 79 74 76 70 68 66 70 73 76 78 75 74 75 79 85 86 86 85 77 72 66 60
91 90 92 95 93 90 91 88 84 83 77 76 80 88 93 93 95 93 82 81 94 88 85 80 78 76 76 76 77 77 78 80 70 76 69 69 72 76 82 82 78 76 78 80 84 87 89 85 79 73 68 63 59 53
90 91 89 94 95 96 96 94 90 86 83 86 90 95 95 94 97 95 95 93 89 86 81 79 79 78 76 76 77 75 79 76 80 80 72 80 83 84 82 79 81 84 85 89 89 82 79 76 73 65 58 56 53 46
89 89 90 92 96 96 95 94 93 89 91 95 97 98 99 98 96 95 93 90 87 85 81 79 78 79 82 82 82 85 88 88 85 83 85 84 84 85 87 90 93 92 91 89 85 82 79 74 64 60 58 50 42 37
88 88 89 91 93 96 94 93 95 96 98 98 98 98 98 97 97 95 93 92 91 90 90 90 91 91 94 94 93 92 93 90 88 88 87 86 90 92 95 96 93 93 94 90 85 79 75 67 61 53 44 41 42 43
77 83 84 89 92 93 95 96 96 96 97 97 97 98 98 98 97 97 97 97 98 96 95 94 95 95 94 95 95 94 92 90 93 94 96 98 98 98 97 96 94 93 88 85 78 70 62 58 51 49 49 50 49 52
55 66 70 72 73 74 84 96 93 95 98 97 97 98 97 97 97 97 96 95 94 94 94 94 94 96 97 97 96 97 98 98 98 98 98 98 97 96 95 94 89 84 81 73 65 62 61 61 61 61 59 59 62 64
41 43 46 48 53 56 67 79 90 95 97 97 97 97 97 96 95 94 95 94 95 97 97 98 97 97 98 98 98 98 98 98 96 93 91 89 88 85 80 78 77 70 66 67 71 71 71 70 69 67 67 68 71 74
23 24 24 25 27 34 50 65 73 86 94 95 96 96 93 91 88 87 87 88 87 85 89 93 96 97 98 97 95 92 89 86 84 82 79 76 75 72 69 68 69 69 71 74 75 77 78 78 80 78 75 74 78 76
13 14 15 16 18 27 40 46 53 64 69 70 71 66 64 63 66 68 69 66 62 70 72 75 77 74 73 71 71 71 72 71 68 66 65 65 64 65 68 71 74 76 75 78 79 82 84 84 80 77 78 80 78 76
7 7 7 8 12 19 30 36 40 42 45 48 47 48 50 50 50 52 51 48 55 59 60 61 60 59 58 57 58 58 59 62 65 67 68 69 70 74 77 78 81 81 83 85 87 88 89 87 85 81 78 77 76 74
9 9 10 12 13 20 27 29 28 36 36 38 39 38 41 39 42 42 43 47 50 51 52 52 51 51 51 53 56 60 64 66 68 70 73 74 77 81 86 88 89 92 95 97 97 96 91 87 84 78 80 74 61 48
13 14 17 23 24 28 27 33 36 38 40 42 40 44 45 46 48 47 51 53 55 55 55 57 57 56 58 60 61 62 64 67 69 75 78 78 87 88 91 96 98 97 97 94 90 86 85 82 75 63 51 42 37 33
18 28 30 34 35 36 37 40 42 42 45 48 49 51 53 55 53 53 56 58 59 60 60 61 62 64 66 66 68 71 75 77 80 83 87 90 95 98 97 95 91 89 85 83 77 69 57 48 43 37 31 34 34 36
35 38 37 39 41 42 45 46 48 50 50 52 55 56 60 61 61 64 65 65 65 65 66 67 67 69 70 72 74 77 79 81 83 86 88 89 89 90 90 87 83 78 63 52 44 38 35 32 31 33 35 37 39 42
42 43 44 44 46 48 51 52 56 57 59 62 64 64 65 67 69 73 75 74 74 74 74 74 74 74 74 75 77 80 81 82 83 82 81 78 72 65 58 52 46 42 38 35 32 29 29 32 35 39 42 45 46 44
45 49 48 51 53 55 57 58 60 64 66 68 71 70 71 71 73 74 73 71 68 67 67 67 67 66 66 67 67 68 69 66 60 55 52 52 52 51 50 45 41 37 34 33 33 35 38 41 42 43 41 39 39 40
54 55 54 54 54 55 57 60 60 61 60 58 59 59 60 63 64 65 66 66 66 66 66 65 64 63 62 61 56 52 49 47 49 51 56 58 58 55 48 39 38 38 39 40 44 44 42 40 37 37 37 38 40 41
49 47 45 46 50 55 54 54 54 54 53 53 53 55 57 59 60 61 62 62 62 62 62 61 61 60 60 58 57 56 54 56 56 56 55 52 46 41 40 46 46 45 45 42 40 38 36 36 36 38 39 40 41 42
51 48 49 50 49 49 48 47 46 46 46 47 48 49 50 53 53 55 56 58 59 59 61 62 63 62 58 56 59 62 66 61 55 50 46 44 44 45 49 47 44 41 39 38 38 39 39 40 40 41 42 43 44 45
39 39 38 42 47 41 40 44 45 49 50 47 46 48 52 53 54 56 58 61 64 66 67 67 68 67 63 63 62 60 55 51 49 48 47 45 42 38 36 36 37 39 40 41 42 43 44 45 45 46 48 48 49 49
38 38 40 40 46 49 45 45 48 50 49 50 51 54 56 59 62 64 66 67 68 69 68 65 64 64 64 61 57 54 55 52 43 38 36 35 34 35 36 38 41 43 45 46 48 50 51 52 52 52 53 54 54 54

GFSWCAN_prec_cthk_027.txt.gz
RH
81 75 66 62 66 75 80 80 82 87 89 88 87 75 57 40 70 74 84 71 75 82 82 66 53 52 65 57 62 61 68 80 67 59 62 49 48 41 47 45 42 41 49 51 56 60 52 29 28 28 35 33 33 32
73 74 75 72 76 85 91 88 88 95 97 88 82 68 50 50 74 78 86 76 90 89 86 79 65 65 59 53 59 63 66 71 48 44 45 46 51 49 44 49 38 41 36 41 39 42 30 28 29 31 32 31 33 35
81 78 74 71 80 89 85 80 79 86 86 80 75 58 46 61 74 81 86 81 91 96 94 88 75 64 64 64 56 56 62 68 51 37 45 48 49 44 49 45 37 36 35 40 37 35 34 32 33 34 33 34 37 37
61 66 68 70 74 73 70 59 65 75 77 71 60 51 48 60 67 72 78 79 96 98 98 92 81 73 72 64 57 61 63 62 52 40 45 43 45 40 43 39 39 38 36 38 38 35 38 41 42 42 43 42 40 44
63 54 53 60 66 62 57 56 59 61 63 55 53 52 73 74 80 87 92 82 96 98 98 96 82 73 72 71 67 62 65 60 50 47 49 47 44 44 44 44 43 38 39 39 43 38 37 43 43 44 44 46 46 46
72 70 65 60 55 54 54 56 57 56 55 53 61 74 87 91 94 93 92 91 97 96 98 92 86 79 68 68 67 66 63 60 54 54 58 50 45 43 49 52 43 40 39 38 41 41 42 44 46 44 44 47 51 54
86 86 92 89 83 74 72 66 63 53 54 69 76 83 93 96 96 93 95 98 95 95 95 93 87 80 69 61 59 54 55 57 51 53 56 52 50 50 52 53 46 46 46 46 47 45 48 45 47 49 53 57 57 59
97 94 93 91 89 83 75 69 64 76 76 81 83 95 97 96 98 98 98 96 86 85 75 85 87 83 71 62 58 53 53 56 58 55 56 56 55 57 58 52 52 51 50 49 47 46 46 51 58 63 65 64 64 66
98 98 98 94 86 72 66 68 76 81 90 90 88 96 98 98 99 98 95 88 83 76 78 84 77 78 72 68 63 62 58 62 58 61 63 61 65 65 58 56 61 60 53 51 51 54 60 65 70 71 69 70 73 77
97 96 97 94 91 85 73 67 67 73 73 84 94 97 98 97 97 93 87 81 71 69 71 76 78 77 73 71 69 67 63 66 67 66 65 70 70 66 65 68 69 63 57 55 60 68 73 74 72 71 74 77 79 80
95 97 98 96 95 91 87 82 77 77 81 82 83 82 83 88 85 77 80 75 72 70 66 74 93 89 78 74 71 70 71 70 72 71 75 76 75 76 74 74 72 71 66 68 72 75 75 75 78 80 82 83 81 76
99 98 95 94 92 91 91 91 90 89 85 83 81 80 83 83 83 86 87 87 84 77 71 82 88 91 85 81 82 84 81 81 84 80 82 83 79 78 79 79 77 76 77 78 78 80 82 84 84 83 81 80 78 73
98 98 99 99 97 95 90 91 91 92 89 86 82 81 84 80 83 82 80 76 71 70 75 83 96 97 97 88 88 88 87 86 80 82 81 80 80 78 78 77 78 80 80 83 84 84 84 85 85 86 82 78 73 69
95 96 98 98 99 99 97 94 92 88 84 82 83 88 92 94 83 80 80 79 75 70 82 87 92 91 90 90 88 87 91 89 91 88 82 82 81 80 79 81 86 87 86 85 85 87 87 89 84 81 78 75 69 66
88 94 95 94 95 96 96 95 91 87 86 91 88 91 89 87 87 85 86 83 80 79 85 92 91 89 89 86 86 85 86 84 82 82 83 83 85 89 90 89 87 87 88 87 85 87 87 83 80 78 75 70 67 56
86 88 93 97 96 95 94 92 87 87 89 90 88 89 88 89 92 94 97 96 91 87 92 92 91 92 92 92 92 90 89 89 88 91 94 94 95 93 91 91 94 95 95 95 91 86 84 82 79 75 70 59 49 45
82 83 88 94 95 96 96 96 95 96 97 95 96 95 97 96 98 97 98 98 98 96 97 96 98 98 98 98 98 98 98 98 97 97 97 98 95 96 98 97 98 97 97 90 87 85 82 78 71 67 58 52 53 56
67 68 72 80 86 92 94 93 92 95 97 97 97 97 97 97 97 98 98 98 98 98 98 98 98 98 97 97 97 98 98 98 97 96 98 97 97 96 96 97 96 96 93 90 85 79 75 71 68 64 64 62 62 64
46 50 50 52 55 65 82 90 91 96 97 97 97 97 97 97 97 97 97 98 97 96 96 97 96 97 97 97 98 98 98 98 98 96 95 94 93 92 90 91 91 89 84 79 78 76 72 69 70 72 70 69 68 67
25 28 30 30 34 48 74 89 90 94 97 97 97 96 96 97 95 93 89 88 87 88 92 96 97 97 97 97 97 98 97 96 93 91 89 88 87 86 84 82 81 82 82 78 76 77 76 77 77 78 74 76 76 73
15 16 19 24 27 34 46 54 66 78 82 85 81 77 81 82 81 79 75 71 73 80 85 87 90 93 94 93 92 90 87 86 86 84 82 80 78 79 80 79 75 73 76 79 78 82 85 86 85 79 76 79 76 73
10 9 10 12 17 28 38 44 45 47 51 52 51 55 56 57 58 55 52 55 65 70 72 73 73 71 70 68 68 70 71 72 74 74 73 71 72 77 77 77 78 82 84 86 87 87 89 92 91 85 83 81 79 75
7 7 9 11 13 19 28 29 31 35 38 39 36 38 40 42 48 43 45 51 54 57 58 56 55 54 53 54 54 55 57 60 64 66 69 73 76 76 77 78 85 87 87 88 92 96 97 93 90 85 82 77 67 53
10 13 17 21 23 27 27 34 36 36 36 39 39 40 42 44 44 43 50 53 55 55 55 54 54 56 57 58 59 61 63 65 66 69 71 74 76 79 85 88 88 89 93 95 92 88 85 82 78 71 57 44 40 39
17 29 28 32 33 33 35 39 41 41 44 46 47 49 50 52 50 53 55 58 59 60 62 62 61 61 62 64 65 67 68 69 70 72 75 77 80 82 84 84 86 85 83 81 80 78 71 58 46 40 37 34 34 36
35 38 37 37 42 42 43 45 47 49 49 51 54 55 56 59 61 64 65 66 67 67 68 69 70 69 70 71 72 72 74 76 76 76 77 78 78 77 80 83 83 81 74 64 52 43 37 32 31 31 33 37 41 42
42 45 46 45 47 46 47 47 47 50 55 61 63 64 68 70 71 73 75 77 77 77 76 75 73 71 70 69 69 68 64 63 62 62 62 62 60 57 53 49 46 45 41 38 34 33 33 35 36 39 41 44 45 44
49 51 49 49 49 49 52 53 56 62 63 63 69 67 70 71 72 71 70 68 68 68 67 66 65 65 66 66 65 63 61 59 58 55 54 54 54 55 53 50 45 40 38 37 38 39 41 42 43 43 43 42 39 38
52 50 47 47 45 46 50 54 56 57 58 58 59 59 61 62 63 63 64 63 63 62 64 64 65 64 64 63 55 50 48 49 52 52 53 54 56 52 46 42 42 43 42 41 43 44 46 46 45 43 39 38 37 38
41 41 41 41 48 56 54 54 54 53 52 51 51 54 55 56 58 58 58 59 60 60 60 60 62 62 61 60 59 59 60 60 58 57 55 51 47 45 43 44 44 44 43 44 43 42 41 40 39 40 40 41 42 43
41 41 40 42 43 42 42 42 44 46 45 44 45 46 50 52 53 55 56 58 58 59 61 64 63 61 59 59 60 60 61 58 54 52 50 48 46 44 43 41 40 38 39 38 39 41 43 44 46 47 48 48 49 50
34 34 34 41 42 40 41 44 48 54 51 49 49 48 51 53 55 56 60 62 65 66 68 68 66 64 64 62 60 58 55 53 51 49 43 38 35 34 33 35 37 41 44 48 50 53 55 56 58 59 59 59 59 60
37 35 36 37 45 47 41 42 51 53 55 57 58 60 61 62 63 65 67 68 68 67 66 65 66 66 67 64 57 50 44 39 36 34 34 36 39 43 48 51 54 57 59 62 65 67 69 70 71 72 71 71 70 69

GFSWCAN_prec_cthk_030.txt.gz
RH
97 96 94 94 93 87 82 80 71 67 64 63 56 63 67 74 66 53 80 80 74 66 68 67 44 37 42 38 45 58 64 62 67 69 67 60 56 52 54 40 37 38 51 56 62 61 49 34 34 34 32 32 31 30
93 96 96 93 90 86 80 76 76 74 71 67 62 74 74 72 63 54 72 71 70 98 92 80 63 38 38 37 45 61 54 58 64 58 60 62 64 57 43 48 39 38 35 40 40 39 31 28 28 28 27 28 31 33
80 76 76 76 78 78 81 80 86 79 74 73 74 86 79 70 63 49 83 89 86 97 97 84 69 48 45 42 49 58 61 58 59 61 69 64 56 55 45 41 39 36 34 38 38 36 35 32 31 31 30 31 34 38
74 73 67 70 75 77 76 81 82 83 80 76 83 89 78 73 60 49 83 84 79 91 89 90 81 58 46 45 61 68 63 58 60 63 69 66 58 44 40 34 36 34 35 38 41 42 40 39 37 36 37 39 40 40
79 77 79 83 88 90 86 87 90 89 90 82 75 71 66 62 55 76 95 91 94 81 78 81 86 74 54 61 62 66 71 59 58 59 68 65 53 49 44 39 37 32 35 38 40 37 38 41 42 44 44 46 46 46
64 70 78 83 88 85 80 80 85 85 87 85 79 71 66 56 72 95 98 91 71 83 96 98 90 82 71 71 73 72 68 63 57 66 73 61 53 46 46 47 35 34 34 33 37 37 38 42 45 47 48 49 49 48
64 62 71 74 73 64 59 67 78 83 84 80 76 69 57 54 62 78 79 73 87 98 96 98 94 84 87 87 95 90 76 70 60 65 68 67 64 55 52 49 41 41 41 38 39 40 46 46 49 51 50 51 52 56
75 69 62 64 62 56 59 62 67 73 72 74 70 61 60 68 80 90 91 93 92 96 96 98 98 96 87 89 87 89 83 78 80 79 76 75 71 62 58 51 48 48 47 49 49 48 49 53 55 52 54 58 62 66
90 87 68 53 49 52 53 56 57 58 61 56 49 56 67 80 83 78 80 93 97 94 99 98 98 95 89 84 80 79 79 86 84 81 80 75 72 67 59 54 53 53 54 58 59 57 56 56 56 61 66 70 72 73
88 85 75 63 53 52 53 53 52 50 53 71 69 69 66 69 93 98 98 98 99 98 96 96 96 93 84 83 85 83 82 80 75 74 69 69 70 67 64 62 62 65 64 69 69 64 62 62 68 74 78 79 78 76
83 88 83 80 75 64 55 64 77 91 88 86 93 98 97 96 97 99 98 96 91 89 92 93 87 85 85 83 83 80 77 72 72 71 71 71 68 67 67 70 73 73 75 77 73 72 71 74 79 83 85 83 81 80
76 75 75 76 80 85 84 81 73 89 92 96 93 93 95 98 98 94 90 84 82 75 67 71 73 70 69 69 73 78 77 77 76 73 75 73 71 73 76 81 81 87 88 84 80 80 83 85 87 86 86 84 80 77
90 83 77 73 74 80 90 92 99 98 98 97 96 97 93 88 88 85 85 79 77 73 71 65 66 80 90 84 85 85 85 87 81 83 82 80 84 82 84 89 94 90 86 85 87 88 89 89 87 87 82 83 85 80
91 93 94 88 82 77 80 82 83 87 86 81 86 91 84 87 86 87 86 86 82 78 72 78 90 90 91 94 97 96 98 95 94 89 84 85 87 87 87 89 89 89 90 91 92 94 92 89 87 88 87 83 78 77
94 92 91 94 96 97 93 84 73 69 71 81 81 91 92 91 90 89 84 79 78 80 79 82 87 92 98 98 96 93 94 92 90 89 91 93 92 90 90 91 91 93 94 94 92 91 92 95 93 88 85 82 77 76
93 93 92 92 91 91 90 88 88 86 88 92 94 93 93 93 91 88 86 88 89 87 87 86 85 88 94 94 91 94 90 90 88 89 89 89 90 92 95 96 97 97 95 91 92 96 94 89 86 82 80 78 75 71
88 96 93 92 93 92 92 88 88 91 94 98 99 99 94 93 92 91 97 99 98 97 96 92 95 97 98 98 97 96 96 95 93 95 97 98 98 98 98 98 98 95 93 96 96 91 88 86 86 85 79 76 70 67
82 86 88 88 86 86 89 92 89 87 92 94 95 95 96 95 97 98 98 98 98 98 98 98 98 97 97 97 97 97 96 96 98 98 98 98 97 96 96 97 98 98 97 94 92 92 91 89 88 82 78 75 73 68
58 56 62 71 77 83 88 93 92 94 93 93 94 94 95 97 98 98 98 98 98 97 96 97 96 97 97 97 97 97 97 98 98 97 96 95 95 95 98 98 98 98 98 96 93 90 88 87 83 82 80 77 72 70
31 32 34 44 60 73 87 93 93 96 97 97 97 97 96 95 94 93 92 91 91 90 95 96 97 97 97 97 97 97 97 98 98 96 95 95 95 95 95 94 93 92 90 89 87 87 88 86 88 86 84 80 79 78
20 22 28 34 42 61 78 86 91 93 93 89 87 88 88 83 82 82 82 78 80 89 92 95 97 97 97 97 97 97 97 98 97 94 91 89 89 88 86 84 83 85 88 88 87 85 86 86 87 88 88 88 87 85
11 12 13 15 23 37 50 54 57 58 62 61 58 58 61 65 63 59 59 62 70 76 79 82 84 87 86 85 84 86 85 86 85 84 82 80 80 81 84 86 86 87 87 83 81 84 87 88 90 92 93 94 92 89
6 7 9 10 12 18 30 32 33 37 43 42 36 40 48 51 53 43 52 58 63 66 67 66 65 65 64 63 63 63 63 64 65 67 70 70 75 77 77 78 81 87 87 87 88 89 90 91 89 87 87 84 80 75
9 13 17 21 23 30 29 33 34 34 36 39 39 42 45 48 43 43 52 54 56 56 57 59 58 57 58 59 59 61 62 64 64 66 68 70 72 74 77 79 80 81 82 85 84 83 81 79 78 76 74 70 60 50
16 27 25 31 31 31 35 39 39 39 41 44 44 47 50 48 49 54 57 59 60 61 62 62 63 63 63 64 65 65 66 68 69 70 73 74 76 78 79 80 79 79 76 75 73 71 70 68 64 56 45 39 37 39
34 39 37 37 41 41 41 44 44 45 47 47 51 51 55 56 59 65 66 67 68 69 71 72 71 71 71 71 71 72 71 69 68 66 65 66 66 65 64 62 61 60 57 54 49 44 39 37 36 37 39 41 43 45
44 46 46 46 46 43 45 46 46 48 53 56 58 62 64 65 69 73 75 77 78 77 76 75 74 71 69 67 66 65 62 60 59 58 58 57 56 54 51 48 47 47 46 43 40 38 37 38 38 40 41 43 44 45
51 53 51 47 44 45 49 50 52 56 57 58 60 59 63 65 67 68 68 68 67 67 66 66 66 66 65 62 60 60 58 55 51 53 54 56 56 56 54 51 48 45 43 41 41 42 44 45 47 48 48 48 47 46
51 46 40 40 37 38 45 49 51 52 52 53 54 57 59 62 64 65 65 65 65 65 63 62 61 62 61 58 54 50 50 53 54 55 53 52 51 50 48 47 47 47 48 48 48 48 48 46 45 44 44 43 43 43
45 44 40 38 41 43 44 43 44 44 45 44 46 51 53 55 57 58 59 59 59 59 60 59 59 60 63 62 58 59 60 58 55 54 54 52 50 49 48 45 43 40 39 38 39 40 42 45 47 50 52 54 56 58
37 33 33 35 38 38 40 41 42 43 45 44 44 45 49 53 55 57 58 58 60 62 63 64 63 61 60 59 59 59 58 56 53 52 50 46 40 36 35 36 38 42 45 48 51 53 55 57 61 63 65 67 69 70
30 33 35 40 43 43 45 48 49 49 51 50 51 52 56 56 59 61 62 63 65 67 68 67 66 66 66 65 62 56 49 42 37 34 34 37 40 42 44 46 47 47 47 48 50 51 53 55 58 61 64 68 70 72
36 34 36 40 47 47 43 46 53 54 57 59 61 63 65 66 68 69 70 69 69 70 68 66 64 58 49 42 39 38 38 38 39 39 38 37 36 36 37 39 41 44 47 50 53 56 59 62 65 68 70 73 76 77

GFSWCAN_prec_cthk_033.txt.gz
RH
97 96 97 98 98 99 98 98 98 97 89 79 66 53 55 65 74 73 76 77 61 57 64 62 65 51 49 37 32 31 56 63 66 73 72 70 75 58 55 51 45 52 62 57 53 53 45 33 34 33 32 37 38 40
97 98 98 98 98 98 97 97 93 86 75 65 59 58 63 66 78 76 88 86 72 75 83 62 63 52 38 41 28 34 43 57 58 70 71 75 72 63 54 55 44 48 42 36 36 37 29 28 28 31 34 34 32 31
98 97 97 96 95 93 89 83 77 77 68 61 65 64 69 71 81 86 80 82 69 70 73 71 72 65 38 35 41 39 46 55 57 57 68 73 71 63 59 51 47 47 35 31 32 30 30 27 26 26 28 28 30 32
97 97 97 96 94 91 88 84 80 74 69 67 64 61 66 66 90 96 83 82 76 73 62 46 64 60 55 34 46 42 52 55 63 67 72 72 71 62 56 47 54 45 33 34 36 33 33 31 30 30 31 32 34 37
76 82 85 86 91 90 86 83 79 78 72 64 65 65 73 78 94 82 77 82 79 62 59 65 84 83 66 37 46 52 51 61 69 71 68 71 72 66 62 60 56 46 33 33 35 30 31 33 35 35 35 38 41 43
71 72 76 78 78 77 81 82 75 75 73 67 71 76 81 88 90 97 92 85 76 70 88 99 89 85 76 49 48 49 55 66 67 68 75 72 69 69 72 70 53 49 36 29 30 34 36 38 39 40 41 43 46 48
80 89 90 86 87 85 82 83 83 84 81 83 87 87 78 76 80 90 75 68 67 92 97 95 95 91 80 65 61 58 53 65 69 72 74 72 64 62 64 66 55 49 42 38 38 40 45 44 44 46 48 50 53 54
82 86 88 85 79 81 83 84 87 88 90 94 97 92 80 71 69 82 80 76 72 94 96 94 88 83 84 73 77 71 71 73 82 82 83 79 69 66 63 61 56 55 52 50 48 47 47 50 53 55 56 58 60 59
68 74 72 63 64 74 81 83 88 86 85 81 80 80 75 62 56 68 94 98 89 96 93 89 91 96 97 83 84 82 84 95 96 88 84 84 77 72 65 67 68 68 64 60 59 59 59 61 63 63 64 65 61 65
57 61 58 52 52 61 71 79 83 84 82 76 72 63 77 68 69 85 98 95 89 89 78 87 88 88 98 88 92 97 95 95 98 94 95 94 89 82 81 78 75 71 67 63 65 70 72 76 77 74 71 70 72 77
49 48 46 46 48 53 55 63 70 69 70 71 72 69 70 89 92 96 98 99 91 91 90 88 88 93 98 93 97 96 96 96 95 95 93 95 89 80 79 78 76 71 70 73 74 78 83 85 86 85 82 80 84 87
45 35 32 35 35 38 49 58 65 64 71 77 82 82 81 79 88 97 98 95 96 98 97 94 92 98 98 95 89 89 90 87 89 87 85 82 74 71 71 68 66 67 69 73 81 85 93 96 92 89 87 91 92 90
59 47 52 49 70 80 78 80 76 77 84 90 87 97 96 98 99 97 93 92 92 86 87 94 96 96 96 96 95 93 93 92 85 82 82 74 71 70 70 70 72 74 77 82 88 95 95 94 93 92 93 92 88 83
73 66 62 58 78 87 92 83 85 95 96 87 89 98 99 98 97 96 93 87 79 77 76 78 83 82 84 87 91 83 83 80 80 77 74 75 76 80 83 85 89 95 97 97 94 90 92 94 96 97 91 86 89 84
82 80 82 89 97 87 92 95 98 98 96 98 98 97 96 95 95 94 91 89 84 82 80 79 78 81 82 84 87 88 87 84 83 83 84 85 88 89 90 92 94 94 93 93 95 96 97 96 91 90 93 88 87 84
97 95 96 93 94 97 96 98 99 94 88 92 94 94 95 94 93 89 86 83 82 82 84 83 84 87 95 96 95 96 94 90 89 90 91 92 94 96 95 94 95 96 97 97 97 97 97 97 97 95 91 84 80 80
97 94 95 98 97 96 98 95 87 84 87 89 95 94 91 90 89 88 87 89 88 89 91 91 88 90 92 95 95 97 96 96 95 96 97 96 96 97 98 99 97 97 97 97 97 98 97 96 93 88 84 85 83 80
97 97 97 98 97 96 94 93 91 91 96 95 93 92 93 92 91 93 92 94 96 95 95 94 91 89 91 91 91 94 97 98 98 97 98 97 98 98 98 98 98 97 97 97 97 97 94 91 89 89 88 85 85 84
78 89 90 89 93 94 95 96 92 96 97 95 95 93 92 94 92 92 94 95 93 93 94 95 95 97 97 97 97 97 97 98 98 97 97 97 98 98 98 98 98 97 97 98 97 96 95 94 93 92 91 91 89 89
39 49 67 80 83 86 91 94 92 94 96 97 95 90 88 89 89 89 87 86 88 91 94 95 96 97 96 97 97 97 97 97 97 97 97 97 97 97 98 98 98 98 98 98 98 98 96 93 92 91 91 92 94 94
31 37 47 52 68 78 90 96 97 97 97 96 93 89 85 84 80 79 80 81 83 95 96 97 97 97 97 97 97 97 97 97 97 97 98 98 97 97 96 95 95 95 93 91 90 90 90 93 94 93 89 89 89 90
18 21 23 27 38 51 59 64 65 69 69 67 66 66 65 62 57 56 60 63 74 83 87 92 94 95 95 95 95 96 97 97 97 97 95 93 91 89 88 88 88 88 88 88 90 93 91 89 88 89 90 89 90 90
8 9 12 14 18 28 38 41 43 46 48 43 37 42 46 45 44 40 49 57 63 67 71 73 74 74 73 71 71 70 69 68 69 70 72 73 74 75 78 80 80 80 83 87 88 88 88 89 89 86 82 82 79 77
8 12 16 19 21 28 27 31 32 35 34 36 39 44 46 46 39 42 51 53 56 57 58 59 59 60 60 60 60 61 62 63 64 64 66 67 68 70 71 73 74 75 76 77 77 76 76 74 72 71 70 66 64 62
15 25 22 28 28 27 33 37 38 37 42 42 42 46 51 43 47 53 56 59 60 62 63 64 64 65 65 65 65 65 66 67 67 67 69 69 69 69 68 66 65 63 61 60 58 57 56 56 54 51 48 44 41 40
32 38 37 35 39 38 39 41 45 47 45 46 49 50 49 48 52 59 61 65 68 69 71 72 73 72 71 70 67 65 63 60 59 57 57 56 54 53 52 50 50 50 48 47 46 45 43 42 41 40 39 39 40 43
41 43 43 43 43 41 45 46 45 46 49 52 55 56 57 58 62 64 68 72 74 74 73 71 69 66 64 62 61 60 58 56 53 52 52 52 50 48 46 46 46 47 46 44 44 44 42 41 42 43 44 47 50 50
49 49 47 44 42 43 46 48 50 52 53 54 52 53 56 57 60 63 64 65 65 65 65 65 64 61 56 54 56 57 54 49 49 51 52 52 51 49 48 46 45 44 43 43 42 42 41 42 43 44 44 45 46 48
47 42 39 40 39 41 46 49 49 49 47 45 46 51 53 56 60 62 65 66 66 64 64 63 62 61 58 55 52 50 51 52 51 50 48 46 44 44 43 42 42 38 35 34 37 40 44 47 48 50 52 54 56 58
45 41 37 38 39 41 42 40 39 37 35 35 38 43 47 50 53 54 56 57 58 58 58 58 59 61 61 57 56 56 55 53 51 50 48 44 39 34 32 32 34 35 37 37 37 38 40 42 44 47 50 54 56 58
40 36 36 38 41 43 43 40 38 39 39 40 41 43 47 51 53 55 58 59 60 60 63 64 63 61 61 60 59 58 54 47 39 33 32 33 33 33 32 31 30 31 32 34 36 39 42 45 48 51 55 59 64 66
36 37 37 39 42 42 44 47 47 49 50 51 52 53 56 57 60 62 64 67 69 68 66 65 64 62 57 50 41 35 34 34 33 33 32 30 29 29 29 31 33 35 38 40 42 44 47 49 52 56 59 62 67 70
37 34 36 39 44 47 48 53 53 54 56 57 59 60 63 63 66 66 66 65 64 61 57 51 41 33 33 36 37 35 33 31 30 29 29 29 30 32 33 35 37 39 40 41 43 44 46 49 52 55 58 60 63 67

GFSWCAN_prec_cthk_039.txt.gz
RH
88 78 88 84 88 90 92 86 85 81 92 97 99 99 97 97 98 97 93 88 77 82 68 67 67 63 51 49 46 44 41 38 56 60 62 57 68 73 72 76 73 60 63 63 59 64 62 42 39 37 31 20 24 30
95 93 83 80 82 85 90 91 87 89 94 97 99 98 97 97 98 98 98 92 72 76 88 79 78 64 68 63 44 37 23 26 33 52 55 62 65 65 63 75 73 73 59 54 49 47 45 44 37 34 24 18 22 28
98 98 95 91 84 81 80 84 89 94 97 99 99 98 98 98 97 97 97 87 67 70 75 61 60 72 73 60 45 35 29 29 26 24 45 47 62 58 63 66 71 68 66 64 59 50 43 40 35 39 25 19 21 26
99 98 98 96 89 84 87 93 98 98 98 98 98 98 98 98 98 98 96 75 66 75 81 76 91 77 69 67 53 44 35 31 36 32 34 45 52 52 65 62 72 69 68 66 60 53 47 38 36 36 25 20 23 26
98 98 99 98 98 97 97 97 98 98 98 98 98 98 98 98 98 98 87 77 67 71 86 82 84 90 93 81 70 59 46 43 42 48 53 49 52 52 59 72 71 67 68 67 57 52 47 43 44 34 24 22 25 27
96 98 97 97 98 98 97 97 97 98 98 99 98 98 97 96 93 81 76 61 62 66 93 90 75 80 86 84 80 67 59 54 57 50 52 53 52 53 62 61 60 65 65 62 63 58 60 52 37 34 28 26 28 32
93 91 92 96 97 97 97 97 97 97 98 98 97 95 91 85 77 76 73 71 76 80 89 88 87 69 76 79 78 72 66 58 57 61 55 54 59 60 62 60 51 56 66 67 66 61 63 58 49 45 44 43 41 41
94 90 86 84 85 85 87 89 90 89 85 80 73 67 67 75 78 82 85 83 84 88 73 80 85 99 84 82 80 74 72 71 63 61 58 56 58 64 63 56 60 61 70 68 65 66 63 65 64 60 56 57 57 56
78 83 84 79 78 78 78 77 75 75 72 72 70 74 80 79 79 76 83 88 91 93 89 86 98 97 88 91 85 83 82 86 73 64 63 63 62 68 60 61 66 65 73 73 74 72 65 64 58 59 60 63 64 66
77 74 73 73 71 67 65 64 63 62 65 71 75 83 82 76 80 77 78 92 95 98 93 95 96 99 89 84 78 73 92 88 82 69 66 67 61 58 60 62 63 71 74 76 72 76 72 69 68 67 68 73 78 79
74 74 78 72 66 61 62 61 63 70 78 81 85 81 75 80 80 77 93 98 84 75 78 74 80 86 86 88 79 87 98 97 87 78 68 62 59 60 62 63 66 70 74 77 78 74 71 75 84 81 84 85 86 90
73 76 75 77 74 70 66 69 75 80 84 75 71 72 88 89 85 92 92 84 83 85 69 67 66 77 89 87 82 86 89 92 89 81 79 75 70 68 67 69 77 82 83 83 85 85 85 93 93 87 87 90 94 98
70 74 72 73 74 82 83 84 86 87 87 87 74 84 88 90 95 97 98 98 93 74 67 64 64 75 83 82 86 90 95 97 94 92 88 84 84 85 83 79 83 87 98 95 95 92 91 94 93 93 92 94 92 92
61 64 77 80 83 83 86 87 85 94 98 92 98 95 96 97 98 98 98 98 95 83 86 84 88 87 91 98 98 98 98 99 98 96 94 95 95 99 99 98 98 98 95 96 95 98 97 97 98 96 93 92 96 98
66 74 78 83 87 92 94 95 98 97 97 98 93 96 98 97 98 98 98 97 96 94 96 98 98 97 98 98 98 98 98 97 96 96 98 98 99 98 98 97 96 95 95 95 95 95 96 96 96 97 98 97 97 97
74 81 87 85 89 90 93 96 96 97 98 95 90 95 97 97 97 97 98 97 95 94 93 96 98 95 96 97 95 96 96 96 96 97 98 98 97 96 94 91 88 90 93 96 97 98 98 97 97 97 97 97 97 97
83 89 90 91 91 88 89 96 95 95 97 97 97 97 97 97 97 97 98 98 97 95 95 90 90 92 92 92 95 95 96 97 96 97 97 97 98 97 97 98 98 97 97 97 98 98 97 97 96 97 97 97 96 97
94 92 94 97 98 98 97 93 90 93 96 97 97 97 97 97 95 93 93 94 92 91 90 91 88 90 94 94 92 93 94 95 95 96 98 97 97 98 97 97 97 97 97 97 97 97 97 97 97 97 97 97 97 97
98 98 98 98 98 97 97 97 90 95 98 96 95 94 92 92 92 93 91 88 87 88 88 87 90 94 96 96 95 94 94 94 95 97 98 98 97 97 97 97 97 97 97 97 97 97 97 97 97 97 97 97 98 97
98 98 98 99 98 97 94 93 90 91 95 92 90 86 83 82 80 80 83 82 84 84 87 92 96 97 97 97 97 97 97 97 97 98 97 98 98 98 97 97 97 97 97 97 97 97 97 97 97 97 97 97 97 98
98 98 97 96 95 94 95 94 93 94 95 92 84 77 68 65 61 59 59 65 64 79 87 95 97 97 97 97 97 97 97 98 97 97 97 97 97 97 97 97 97 97 97 97 97 97 97 97 97 97 97 96 95 94
92 87 82 80 81 83 85 85 81 77 67 59 53 47 48 47 46 46 48 48 57 66 70 74 77 82 88 92 95 97 97 97 97 97 97 97 97 96 97 97 97 95 94 94 93 91 89 89 89 88 87 84 80 76
44 44 41 40 44 51 54 52 47 46 45 43 43 42 42 41 41 40 48 54 58 60 62 65 66 66 65 64 64 65 68 70 74 76 78 77 77 76 76 75 75 75 74 73 71 68 66 64 60 57 53 50 48 46
22 17 16 18 23 33 32 35 33 34 35 38 40 44 43 40 36 40 48 51 54 55 56 56 56 56 56 56 55 55 55 55 54 54 53 53 52 51 50 49 48 47 46 44 41 39 38 37 37 36 36 35 34 33
16 25 20 26 25 26 33 37 39 38 43 44 44 47 46 41 44 50 52 54 56 57 57 57 57 56 57 57 57 57 57 54 52 50 47 44 42 41 40 39 38 38 38 37 36 35 33 30 27 25 24 25 26 28
29 34 33 33 34 34 39 40 42 44 45 46 48 48 44 46 50 54 55 58 59 60 62 63 64 64 63 62 59 55 52 49 46 44 43 42 42 41 41 39 37 34 31 28 25 23 23 25 26 27 27 27 27 27
35 36 38 39 39 37 41 42 42 44 48 51 52 53 49 53 55 56 58 60 62 64 65 64 63 61 59 56 52 50 48 47 46 46 45 43 40 37 34 30 26 24 23 25 27 26 25 23 23 23 24 27 29 31
38 38 38 39 37 38 41 43 44 46 47 47 45 47 47 48 51 54 56 59 61 62 63 62 60 56 53 50 47 44 45 46 45 42 40 37 32 27 25 26 27 28 28 25 22 22 23 24 25 26 27 28 29 31
39 36 31 34 34 35 38 40 41 40 39 38 38 40 41 43 45 51 55 56 57 58 58 57 56 55 51 50 51 51 49 46 43 37 31 28 28 29 30 28 25 22 22 24 25 27 28 28 28 29 30 31 33 35
33 30 30 34 38 41 41 39 38 36 35 33 33 37 41 44 46 49 52 54 56 56 56 56 56 57 56 55 54 51 46 38 32 30 30 30 28 25 23 23 24 25 26 27 28 29 29 30 31 32 33 34 35 37
32 31 36 39 45 45 41 39 38 36 34 35 35 37 40 45 50 52 54 56 58 60 61 61 60 58 56 48 39 34 31 30 29 27 26 24 24 25 26 26 27 28 28 29 30 31 32 32 33 34 35 36 38 39
35 36 38 42 45 45 45 45 42 41 41 42 42 43 46 49 51 54 56 59 59 59 58 55 48 39 34 31 30 29 28 27 26 25 24 25 26 27 28 28 29 31 32 33 34 35 36 37 37 39 40 42 42 42
40 38 38 40 42 42 43 43 43 45 46 47 49 49 51 50 53 54 55 55 52 43 34 31 31 31 31 30 30 29 27 26 26 25 26 26 27 28 29 31 34 36 38 39 40 40 40 41 42 44 46 47 48 48

GFSWCAN_prec_cthk_042.txt.gz
RH
98 89 79 82 91 91 92 91 98 98 96 96 77 80 95 99 99 96 94 91 89 90 85 77 69 80 73 62 60 50 53 54 47 44 52 56 56 52 46 63 71 69 68 67 63 68 56 33 40 46 43 39 31 25
96 84 85 89 94 94 98 92 95 95 94 79 72 86 97 99 98 97 98 93 91 91 79 70 75 83 85 68 55 54 32 44 41 42 51 53 65 61 49 56 62 75 63 61 54 50 46 40 34 37 42 40 34 28
91 83 85 87 90 91 93 94 92 88 71 68 81 94 98 99 98 97 96 94 91 92 80 75 85 88 85 81 65 54 40 35 32 31 35 36 51 52 53 48 54 62 68 70 64 52 51 50 45 42 42 41 34 32
95 83 83 88 93 91 85 79 79 80 88 92 96 98 99 99 98 95 97 94 92 92 88 82 79 82 95 95 72 51 44 33 32 32 33 41 42 51 52 45 48 48 58 62 62 60 56 55 55 52 47 42 35 31
97 85 83 89 95 94 89 90 91 95 97 97 98 98 98 98 98 97 97 93 91 87 75 75 75 86 87 84 79 61 50 46 44 46 40 37 33 42 46 49 49 47 46 51 54 58 62 62 60 57 52 45 39 29
98 96 94 97 98 98 97 97 97 98 98 98 98 98 96 96 96 98 98 94 91 82 65 89 87 82 75 73 69 60 49 45 47 44 51 47 37 39 46 37 32 31 36 46 52 61 63 63 65 58 56 49 45 38
98 98 98 95 95 98 98 97 97 96 96 97 97 98 98 97 97 93 86 84 83 70 76 78 85 91 91 82 84 75 59 52 50 59 60 47 42 43 48 45 33 39 39 38 54 63 63 63 66 65 61 56 44 39
95 97 98 98 97 98 98 98 97 96 97 97 97 98 98 96 92 87 83 69 62 71 85 96 92 96 97 95 95 86 84 79 67 59 61 62 64 59 56 39 36 42 46 45 48 53 61 65 66 65 64 62 56 54
84 88 95 97 98 98 98 99 99 98 97 96 95 93 89 84 76 89 75 64 54 79 91 91 88 94 92 86 95 92 91 88 86 77 69 68 61 55 49 39 37 45 46 47 51 62 66 61 71 72 72 70 70 70
81 79 80 87 92 93 93 93 93 92 89 83 80 80 73 74 84 85 87 84 82 90 80 73 74 94 90 89 84 84 88 95 84 79 76 69 60 58 54 51 51 55 56 50 52 61 70 70 75 78 74 77 75 72
75 73 73 78 78 74 71 68 64 60 60 65 68 73 71 74 87 88 85 91 86 83 87 79 82 95 98 94 89 92 98 88 85 81 83 76 66 65 63 60 57 59 59 61 61 62 63 70 78 78 79 77 79 82
69 66 65 65 64 62 62 62 67 71 79 86 76 69 75 84 83 78 81 91 85 72 81 88 90 91 96 99 90 82 87 97 98 87 90 84 78 74 72 69 66 63 61 60 61 65 67 70 74 80 81 82 87 91
73 66 62 60 61 64 71 80 82 82 85 87 81 81 86 85 80 87 91 86 86 84 81 87 96 92 87 85 83 90 89 94 99 97 92 87 84 78 73 72 71 71 71 72 72 71 77 83 87 94 95 96 98 98
71 69 67 69 84 88 87 87 85 85 81 84 89 87 95 88 94 91 85 81 76 77 73 74 78 81 81 89 94 92 90 90 94 87 85 85 86 89 89 89 88 91 92 91 90 90 90 98 98 98 98 97 98 97
77 78 83 87 87 89 91 90 83 81 86 96 95 94 97 97 97 97 93 78 75 74 68 71 77 84 90 97 98 98 98 94 90 90 91 86 91 97 97 96 98 98 98 98 98 96 97 97 98 98 97 97 96 96
75 79 84 85 88 93 94 96 97 96 96 97 94 96 97 96 97 97 96 95 93 94 98 98 98 98 97 97 95 96 94 94 94 94 95 96 96 96 97 98 98 97 98 97 96 96 94 95 95 96 97 97 97 97
68 75 78 83 90 94 96 97 97 96 97 96 97 97 97 97 97 97 98 98 98 98 98 95 93 96 93 92 94 94 95 96 96 97 97 97 97 97 97 97 97 97 97 97 97 98 97 97 97 97 96 96 97 97
88 81 81 85 91 92 94 96 96 96 96 97 96 97 97 98 97 98 98 98 96 92 89 88 86 90 91 92 94 96 96 97 97 97 97 97 97 97 97 97 97 97 96 97 97 97 97 97 97 97 97 97 97 97
95 97 97 97 97 95 96 95 92 95 96 97 96 95 95 96 96 93 90 89 88 84 81 82 87 93 95 96 97 97 97 96 97 97 98 98 97 97 97 97 97 97 97 97 97 97 97 97 97 96 97 97 97 97
98 98 98 98 95 95 97 96 91 92 92 88 85 80 77 79 80 81 82 80 78 79 83 89 94 95 96 97 98 98 98 97 98 98 98 98 97 97 97 97 97 97 97 97 97 97 97 97 97 97 97 97 97 97
98 98 98 97 97 95 96 97 96 93 90 80 69 64 65 64 60 59 58 61 53 66 77 86 91 93 95 96 96 97 97 97 97 97 97 97 97 97 97 97 97 97 97 97 97 97 97 97 97 97 97 96 95 93
97 95 94 93 92 91 90 90 81 68 61 58 54 48 50 51 49 49 50 48 55 62 67 71 72 73 75 78 81 83 85 87 88 90 93 95 96 97 97 96 95 93 92 89 85 79 74 70 67 65 62 59 55 51
74 72 71 67 66 64 60 49 45 45 42 42 43 39 39 40 39 40 45 49 53 56 58 60 61 62 62 61 61 59 59 58 58 57 56 54 52 50 49 49 48 47 46 45 44 41 39 37 34 33 31 30 28 27
30 28 22 24 29 37 34 36 34 35 36 38 37 40 40 40 37 42 46 50 53 55 55 55 55 55 55 54 54 53 52 49 48 48 49 46 44 41 39 37 36 35 35 34 32 30 28 25 23 21 21 22 22 23
20 26 23 26 27 27 31 34 35 36 41 41 42 44 42 40 42 46 49 51 54 56 56 57 57 58 59 59 59 55 55 53 48 43 40 38 38 38 37 36 34 31 28 26 23 23 22 23 23 23 24 22 22 23
29 33 31 32 32 33 36 38 39 41 41 43 44 42 42 43 45 49 50 54 56 57 58 60 61 63 64 64 63 59 50 46 44 43 43 42 40 38 34 30 29 23 22 23 25 25 24 22 22 23 26 27 25 25
34 35 35 36 35 34 37 38 38 39 42 45 45 43 41 43 47 48 51 54 56 57 58 61 64 66 64 57 52 48 46 46 46 44 41 36 31 25 23 23 26 27 27 25 23 23 24 24 24 24 25 27 27 27
35 35 34 35 35 35 36 36 37 39 40 40 38 42 41 41 43 48 51 53 55 59 60 59 59 57 52 48 46 47 48 46 43 39 31 26 26 28 30 30 28 25 24 23 23 24 25 25 26 26 27 28 28 29
35 33 30 31 30 32 34 36 36 36 36 36 34 36 37 39 41 45 50 54 56 57 56 55 53 51 50 51 52 51 49 43 33 30 31 32 33 31 26 23 22 23 24 25 26 26 27 27 28 29 30 30 31 32
32 29 29 32 33 36 36 35 35 34 34 32 31 34 36 40 43 46 49 52 54 54 54 54 55 55 56 54 51 43 36 32 30 30 28 26 24 23 24 25 25 25 26 27 28 29 30 32 32 33 34 34 35 36
31 31 32 35 37 39 38 35 34 32 31 33 34 35 38 43 46 49 51 52 54 56 57 58 56 53 49 40 34 31 30 28 26 24 23 24 24 25 26 26 27 28 30 32 34 35 36 37 37 37 37 38 40 42
32 34 35 40 44 44 43 41 39 39 39 39 39 40 42 45 48 49 51 53 55 54 52 49 43 34 31 29 29 28 27 26 25 25 24 24 25 26 28 30 32 33 34 35 36 37 38 39 41 43 42 43 44 45
39 38 39 42 43 44 43 44 43 44 44 45 45 45 47 48 48 47 48 47 45 40 32 27 29 30 31 30 29 28 27 26 24 24 25 26 28 30 31 32 33 34 35 36 36 37 38 40 43 45 46 48 50 50

GFSWCAN_prec_cthk_045.txt.gz
RH
97 82 69 77 83 86 86 88 91 95 98 82 95 98 92 82 79 97 98 94 86 89 88 89 90 87 67 63 65 52 76 72 70 73 53 47 53 43 45 46 62 84 78 75 68 69 67 42 39 38 30 33 46 44
91 75 76 87 88 92 86 94 87 83 98 88 96 98 96 80 93 99 98 94 93 95 95 98 90 87 82 77 64 65 78 67 50 59 54 43 51 57 48 55 49 70 79 75 63 55 46 41 41 42 39 47 49 45
82 81 82 90 91 94 90 94 96 90 86 96 98 95 85 70 84 92 98 97 95 97 97 95 89 80 83 89 79 65 70 72 61 55 55 55 50 47 59 56 48 56 61 73 74 63 55 54 49 49 47 44 50 49
86 86 89 88 95 94 98 98 98 98 98 98 95 83 67 72 90 97 97 96 95 97 97 91 77 72 70 86 88 73 90 74 67 64 59 55 50 36 52 55 54 50 56 52 54 57 62 63 54 56 58 61 60 53
94 94 93 87 85 89 94 93 94 91 84 81 75 73 84 89 98 99 98 96 96 92 90 85 71 72 72 76 95 87 73 70 72 60 60 58 46 35 46 48 50 51 53 49 52 46 56 59 61 64 65 62 58 53
98 96 91 89 87 79 75 72 71 79 82 85 93 96 97 98 93 94 98 98 97 95 84 78 75 86 86 88 93 89 82 77 73 52 59 46 35 33 41 39 32 36 48 39 46 44 48 51 57 60 65 64 64 59
94 98 94 93 94 92 90 91 94 98 99 98 97 96 99 98 97 97 94 90 92 90 85 68 70 74 80 89 91 85 74 71 70 65 56 61 46 38 40 41 29 26 28 31 37 41 44 47 52 61 64 66 65 67
93 98 98 97 96 95 94 94 95 95 96 97 98 99 98 97 98 96 88 89 89 92 85 73 74 80 74 80 87 86 86 81 74 72 63 52 50 56 53 38 32 30 33 39 41 47 44 46 47 53 59 65 68 67
97 96 97 98 98 98 96 97 96 96 96 97 97 97 98 98 97 96 87 86 92 90 81 64 89 93 89 79 78 80 87 85 70 59 55 55 56 63 57 50 40 42 39 34 35 49 55 50 56 58 63 69 69 70
98 98 99 99 96 96 96 96 97 96 96 97 98 97 96 95 92 87 91 89 84 78 81 77 81 93 97 98 91 94 97 94 81 76 71 68 60 68 71 64 58 51 46 43 42 42 47 56 57 60 70 74 76 79
95 97 97 97 98 97 96 93 91 90 90 91 87 91 90 96 96 95 84 80 79 86 88 90 89 94 97 99 99 95 90 95 94 92 93 84 83 80 81 72 59 53 54 56 57 55 53 50 49 54 65 70 72 79
85 87 89 89 90 92 88 82 81 85 83 82 83 89 88 87 88 82 83 83 78 80 89 88 90 90 86 96 99 95 99 98 92 88 92 87 80 76 74 74 71 67 64 61 69 71 66 61 62 66 69 71 72 73
69 68 68 65 65 66 69 72 78 81 69 71 80 84 86 88 86 81 82 97 97 88 95 92 95 96 97 98 95 90 94 96 97 98 94 86 79 79 81 83 78 73 70 69 68 66 64 64 65 67 68 71 75 82
59 59 63 71 74 74 74 81 89 84 86 83 87 86 97 88 86 86 93 96 96 91 93 94 96 98 98 98 99 94 97 97 96 95 94 90 89 91 92 93 92 87 82 78 78 78 82 83 85 85 87 88 90 96
61 73 77 78 82 81 80 79 81 81 82 89 88 91 95 96 93 89 90 92 92 95 91 87 98 96 93 96 95 94 92 91 91 88 88 87 85 85 90 94 95 94 93 93 94 97 98 97 98 97 97 98 97 97
79 84 86 84 82 81 83 85 84 86 96 96 95 96 96 96 86 82 80 81 84 85 90 91 90 93 94 91 94 92 85 83 89 89 88 91 90 92 90 92 93 96 97 98 97 97 97 97 97 96 97 97 97 97
84 86 89 90 90 91 94 93 91 95 96 96 97 97 97 90 89 88 85 84 84 89 88 95 93 91 92 93 95 95 95 96 96 97 97 97 97 97 97 97 96 97 97 97 96 96 96 96 97 97 96 96 97 97
79 83 85 86 88 91 93 92 93 96 96 97 96 96 96 96 94 92 90 90 91 96 97 96 94 94 95 95 95 96 96 97 97 97 97 97 97 97 97 96 97 97 97 96 97 96 96 97 97 97 97 97 96 97
76 82 86 90 91 92 96 96 94 95 96 97 97 97 97 97 97 97 96 95 94 93 89 88 91 93 95 96 97 97 97 97 97 97 97 97 97 97 97 97 97 97 97 97 96 97 97 97 97 97 96 96 97 97
96 96 97 97 97 93 96 96 88 83 83 88 87 84 85 85 87 89 87 85 84 84 86 89 94 96 97 98 98 97 98 97 98 97 98 98 97 98 98 98 98 98 97 97 97 98 97 96 96 96 96 96 96 96
97 97 97 94 91 91 94 92 79 73 71 70 71 67 68 65 62 60 60 61 56 67 75 83 85 86 88 90 91 92 94 95 95 96 96 97 97 97 96 96 96 96 96 96 96 93 93 92 90 87 80 75 67 65
98 97 97 95 93 91 85 74 65 63 57 55 51 50 51 51 48 46 46 46 54 59 61 64 65 66 67 66 67 68 70 73 76 77 78 78 78 77 76 74 70 68 64 61 56 52 48 39 42 40 37 36 33 29
88 85 83 83 79 58 50 47 43 44 44 43 43 40 39 40 39 36 41 45 50 52 54 55 56 58 59 61 61 60 59 57 54 53 52 52 51 50 48 46 44 42 39 38 36 35 31 27 26 27 27 27 28 28
55 53 54 50 42 41 39 37 35 37 40 38 38 39 40 39 38 40 44 48 51 53 53 53 53 53 53 52 50 50 49 50 51 51 49 46 44 42 40 39 36 34 32 29 28 28 28 28 29 29 28 27 26 26
30 29 29 28 29 28 33 35 37 37 39 39 39 41 40 40 41 43 45 49 51 52 53 53 54 54 56 57 56 55 54 54 52 49 46 46 46 44 40 35 31 29 29 30 31 31 30 28 27 27 26 26 25 25
30 33 32 32 31 32 33 34 35 39 38 40 40 40 41 40 41 43 45 49 50 52 54 56 57 58 60 61 63 61 57 52 48 45 42 39 37 36 32 30 30 31 30 29 29 28 27 26 26 26 26 26 26 26
33 34 34 34 34 33 35 37 36 37 40 43 42 41 39 42 43 46 47 49 51 52 54 57 61 63 64 63 60 52 45 43 41 39 34 27 22 22 25 30 31 26 27 22 25 26 27 27 27 27 28 28 29 30
35 33 34 35 34 34 34 34 34 37 38 38 37 40 39 41 42 45 45 48 51 53 55 58 62 62 58 52 50 51 48 45 39 29 31 34 31 29 27 25 22 21 20 21 21 23 28 29 30 32 33 34 34 34
36 33 27 30 30 33 33 34 35 36 37 35 34 34 34 36 38 42 45 49 53 55 56 56 54 50 48 50 51 50 44 34 37 34 37 36 34 30 24 23 25 23 23 26 27 27 29 30 31 32 33 35 37 37
33 34 27 30 33 36 37 37 36 34 34 32 31 35 36 38 40 43 46 50 52 52 53 53 54 56 56 54 48 37 32 31 29 29 32 29 29 24 25 28 27 26 28 30 31 32 32 33 36 39 41 41 43 39
36 31 31 34 36 39 39 37 36 35 34 35 36 36 38 40 43 46 48 50 51 51 54 56 55 53 48 40 37 37 36 27 25 23 23 23 23 26 28 27 29 30 31 32 31 32 33 34 39 41 43 42 42 43
33 33 33 37 41 41 42 42 41 40 39 38 38 38 39 42 45 45 47 49 51 52 50 46 41 35 29 29 30 29 28 26 25 24 23 23 25 27 29 29 30 30 31 32 33 34 35 36 37 38 40 42 43 45
39 34 34 37 42 44 43 42 40 40 39 39 41 41 41 42 44 43 44 45 45 43 37 32 29 31 31 31 30 29 27 25 24 23 25 27 28 28 29 30 30 31 31 33 34 35 37 38 38 37 38 39 41 43

GFSWCAN_prec_cthk_051.txt.gz
RH
87 96 98 98 90 80 75 71 69 70 76 87 91 93 94 85 78 90 98 98 98 98 87 82 84 76 74 77 71 64 75 71 68 61 63 62 63 52 55 61 80 95 87 91 91 93 82 63 55 54 46 42 44 41
97 98 95 93 87 78 78 82 78 77 76 75 76 89 94 96 90 91 95 94 97 98 98 88 87 83 82 79 80 80 71 66 60 62 62 61 62 62 51 69 62 86 80 71 69 67 69 64 66 65 66 62 55 54
97 89 90 84 82 87 92 93 92 83 84 92 94 90 98 99 98 89 81 83 97 97 98 93 82 74 76 81 80 87 76 68 64 56 69 73 83 71 80 59 54 62 57 62 62 59 66 64 65 66 70 68 61 62
97 89 82 87 93 93 93 93 93 96 91 94 93 93 98 98 98 98 86 82 84 98 99 88 93 79 74 73 80 79 86 81 68 67 73 79 97 68 75 64 61 57 54 47 49 48 58 60 64 67 69 67 67 63
87 86 90 95 94 93 86 92 93 93 93 88 94 98 97 96 97 95 91 87 93 98 93 88 89 81 73 73 78 84 89 83 74 81 78 79 80 79 74 66 53 48 45 47 50 41 61 63 63 61 66 72 71 70
93 86 85 84 92 95 99 88 91 97 92 91 94 94 94 98 99 99 99 99 99 93 85 85 74 72 82 81 87 89 83 74 73 76 78 76 68 68 87 80 55 44 36 34 39 41 57 67 68 71 62 65 71 68
93 95 86 85 97 90 98 96 93 86 93 95 97 98 98 98 98 94 86 88 97 97 92 90 85 82 83 83 78 71 68 69 67 73 84 88 84 90 72 81 73 64 59 57 52 48 50 55 57 61 57 58 57 58
96 96 80 76 91 94 85 86 92 97 96 98 98 98 99 99 98 98 91 92 93 89 83 83 83 79 76 75 74 67 64 62 64 70 78 89 85 91 96 84 81 67 58 51 50 49 48 46 49 46 43 47 56 49
95 95 91 74 75 85 93 95 96 98 99 99 98 94 96 98 96 97 98 93 86 80 75 76 80 87 87 79 74 69 73 74 65 67 80 93 88 97 91 91 83 69 60 60 59 56 54 50 46 46 48 49 50 49
96 95 96 94 90 87 81 79 79 85 88 95 98 95 98 98 96 93 94 93 92 83 80 83 76 76 82 90 96 93 93 84 82 72 78 97 97 87 94 95 88 82 69 60 55 54 49 51 52 51 49 51 52 48
97 96 96 96 97 98 98 99 95 92 93 92 93 93 98 97 89 87 90 90 85 83 76 79 76 72 73 87 90 95 99 96 89 82 82 97 96 95 92 89 95 97 86 80 76 67 61 61 62 61 59 58 57 55
98 98 95 93 94 94 94 96 97 96 93 91 87 90 91 91 89 83 88 86 82 90 87 85 83 78 76 74 85 95 99 94 96 91 97 97 91 84 78 84 88 83 76 74 74 72 73 74 74 74 71 68 65 64
97 97 98 98 98 97 96 96 93 89 89 92 92 97 94 89 92 93 96 94 89 93 96 91 88 84 85 85 86 95 94 98 97 98 97 91 84 76 78 81 83 79 75 76 79 77 76 76 79 80 79 77 74 70
95 91 90 92 92 93 93 92 89 87 88 89 90 87 84 89 89 87 95 93 85 91 90 97 97 96 89 88 93 95 93 91 92 91 88 84 81 84 89 90 92 92 88 86 87 87 86 86 87 86 84 81 78 74
73 73 73 79 84 85 86 85 84 84 81 80 77 83 84 85 88 93 97 98 93 93 98 98 98 97 96 94 95 96 95 94 92 94 96 96 93 92 95 96 97 97 97 95 94 93 92 91 91 90 89 88 84 83
77 76 77 81 83 79 79 76 78 79 79 72 72 79 81 83 84 88 94 97 96 97 98 95 98 97 97 96 96 97 95 97 97 97 97 96 97 96 97 97 97 97 97 97 97 96 96 96 97 97 97 96 96 95
88 90 91 89 87 84 86 81 78 82 86 85 85 84 79 77 83 80 85 92 94 93 93 92 96 97 92 93 95 96 95 94 93 96 95 97 97 97 97 97 97 96 97 96 97 97 97 97 97 97 96 97 96 97
93 95 95 96 98 88 84 84 84 87 89 88 85 86 83 79 77 77 78 84 87 88 87 93 92 95 97 96 96 95 98 97 97 97 96 96 96 95 97 97 97 98 97 97 97 97 97 97 96 96 96 97 96 96
95 95 97 98 93 88 87 86 85 92 95 95 95 90 87 85 84 83 87 91 93 93 95 96 95 95 95 95 96 97 97 97 97 97 97 97 97 97 97 97 97 97 96 97 97 97 96 96 96 96 96 95 94 93
92 95 97 98 93 85 85 86 87 87 95 95 95 95 95 96 96 95 95 95 95 93 92 94 95 93 89 86 85 84 82 80 79 79 78 77 77 77 76 76 77 77 78 78 78 78 77 73 70 66 60 53 46 41
97 95 88 81 77 81 90 85 85 87 90 91 89 87 84 81 80 78 72 70 67 66 66 71 71 69 68 67 67 68 70 71 73 74 75 75 75 75 75 75 73 71 67 62 57 50 41 37 34 31 27 25 26 26
92 87 75 62 57 61 62 62 60 59 59 59 56 54 55 56 55 52 54 44 49 57 59 62 63 64 64 65 66 68 70 72 73 75 75 75 75 73 69 64 58 52 44 38 32 30 28 27 26 27 27 27 26 25
87 75 55 41 40 44 50 47 45 49 51 47 43 45 47 45 43 40 44 51 55 58 60 62 63 64 65 66 66 68 69 70 70 66 62 57 52 48 44 41 38 34 32 30 28 28 28 29 26 23 23 24 24 24
77 60 43 39 39 42 39 39 36 35 34 38 38 41 44 44 40 42 50 53 55 57 58 59 59 60 60 59 57 57 55 53 52 52 51 48 44 40 35 29 28 29 30 30 29 28 26 26 26 25 22 22 24 25
58 49 44 43 39 33 34 35 35 35 39 38 40 43 43 39 44 48 49 51 53 55 55 54 54 53 52 53 54 53 53 51 50 49 47 43 38 34 32 30 28 26 29 29 28 27 26 25 26 26 25 23 23 25
51 46 44 36 33 33 34 37 36 38 38 40 41 39 39 40 43 47 47 50 51 52 53 53 53 54 55 56 55 55 54 51 43 35 30 27 27 29 32 33 32 26 26 27 29 28 28 27 26 28 29 29 29 29
39 38 35 35 35 31 35 34 32 35 41 42 42 42 39 43 45 45 47 49 50 52 54 55 55 55 55 53 50 46 42 38 34 30 29 29 28 28 28 26 24 24 24 24 23 23 24 28 30 31 31 31 32 33
38 38 38 35 33 32 34 34 35 38 38 39 36 39 42 44 44 44 46 49 50 54 54 54 54 53 51 49 47 44 43 41 34 33 35 36 33 30 24 22 22 23 23 24 25 26 26 26 27 28 29 30 33 37
43 35 28 29 27 31 35 36 36 36 36 36 36 38 38 39 40 45 46 48 50 52 52 51 50 47 46 46 45 40 27 30 34 33 33 31 29 27 23 22 22 22 25 28 30 30 29 29 30 32 35 36 37 38
36 28 26 30 34 37 38 37 37 31 32 32 32 38 40 43 45 46 47 48 48 47 47 46 46 46 47 45 35 27 25 24 24 25 27 27 25 23 22 24 25 26 27 28 28 29 30 31 31 33 36 38 39 41
33 27 28 33 39 40 38 36 35 35 34 36 36 37 40 44 46 47 47 46 45 44 43 44 44 41 36 29 29 29 28 29 26 24 23 22 22 22 24 26 26 27 27 27 28 29 29 30 32 33 35 37 39 41
31 28 30 37 41 41 42 43 41 42 43 42 44 44 44 44 43 43 43 43 41 41 41 39 34 31 30 29 30 31 30 28 26 24 23 22 23 25 26 27 27 26 27 28 28 27 28 31 34 36 37 38 39 41
32 31 33 38 44 45 45 46 45 50 48 48 47 45 44 43 41 40 40 39 39 39 36 33 32 33 30 31 31 30 28 26 24 23 23 24 26 27 28 28 26 27 27 27 27 28 29 32 34 37 37 38 39 41

GFSWCAN_prec_cthk_057.txt.gz
RH
81 80 81 82 80 83 85 84 84 83 81 80 83 82 92 97 98 98 95 97 95 93 93 90 84 79 81 81 83 77 80 76 79 77 77 71 66 55 48 45 45 54 64 61 62 74 69 55 54 74 83 74 62 62
87 89 88 86 88 88 88 90 88 87 88 87 84 86 85 88 97 98 97 97 98 97 93 90 86 84 79 76 80 79 75 69 70 73 70 70 67 65 56 56 48 50 48 56 61 59 46 43 54 70 89 89 73 65
91 92 84 87 89 91 93 90 91 88 85 88 90 92 92 93 94 97 96 96 98 96 95 96 88 85 83 80 82 80 72 68 65 66 69 68 65 61 60 54 52 49 49 48 53 35 31 30 42 54 69 82 72 72
92 81 81 81 87 91 90 85 83 85 88 91 95 92 94 99 99 98 89 96 98 96 99 90 85 83 85 84 80 77 75 77 72 76 80 78 72 63 62 56 59 55 57 56 50 43 41 34 52 59 66 69 61 63
78 75 85 93 95 97 96 94 89 93 92 92 93 94 87 90 99 97 92 91 96 94 93 81 77 75 79 86 82 81 81 80 80 84 86 87 79 74 71 68 66 65 65 64 63 71 79 56 62 59 59 61 58 60
76 76 81 89 96 98 90 90 94 95 92 96 95 95 88 84 99 97 99 99 97 93 90 86 78 72 78 74 84 93 95 92 85 85 92 85 80 86 90 78 75 76 70 67 74 80 85 85 73 67 71 65 64 70
82 79 84 84 86 90 92 89 93 94 95 96 96 96 93 93 98 90 81 75 83 84 74 75 74 72 78 83 80 98 90 90 85 86 89 83 82 95 97 95 82 79 75 75 81 82 97 91 87 83 80 69 70 67
88 86 84 83 83 87 91 96 98 95 93 94 96 96 90 92 99 97 89 78 77 72 77 91 95 94 91 88 98 93 94 90 85 85 87 86 90 97 98 97 96 93 89 86 92 94 94 88 86 84 82 72 61 63
89 90 88 91 87 80 84 84 88 93 87 90 96 97 98 97 97 96 89 84 81 82 88 98 88 95 95 94 88 91 84 89 84 84 89 90 94 97 92 90 87 91 90 88 90 93 94 91 93 90 88 75 65 71
83 94 92 86 87 90 88 89 87 89 92 98 97 98 99 92 94 93 92 89 87 96 99 94 85 91 87 85 92 92 87 88 90 88 88 89 86 82 81 80 81 86 94 95 96 95 98 96 98 97 90 79 74 77
78 88 88 83 87 94 98 98 97 96 94 89 87 91 95 96 90 90 95 98 98 95 92 88 80 81 80 86 88 86 94 95 97 96 94 88 83 79 79 75 78 82 89 91 95 95 98 96 93 98 96 90 87 81
87 86 85 82 85 88 90 91 93 93 95 96 92 96 98 99 96 94 94 86 82 82 85 85 83 83 86 87 88 90 88 96 98 91 90 84 77 77 74 72 72 75 82 86 87 92 97 97 96 93 94 89 79 78
93 89 82 83 83 86 89 93 94 96 95 89 85 79 81 83 84 85 85 83 83 84 85 84 86 85 83 77 79 86 92 97 96 97 90 89 87 85 82 78 79 85 88 91 92 92 92 95 95 96 97 88 84 89
96 96 94 91 88 87 88 86 84 83 80 78 76 78 79 83 84 84 84 84 83 84 83 82 84 86 87 85 86 86 89 89 88 88 92 96 96 97 90 88 90 91 91 94 96 96 93 94 94 94 94 91 90 93
94 94 96 93 93 90 87 84 83 78 72 75 75 81 82 82 81 81 82 85 86 86 89 89 87 86 89 89 87 83 82 88 82 80 83 87 90 90 92 90 90 93 94 93 92 93 94 96 96 95 94 95 95 94
94 91 91 92 91 88 86 83 80 75 77 80 85 91 92 92 89 86 85 86 87 90 88 92 91 90 91 89 82 82 80 83 81 84 88 94 95 96 96 95 96 94 92 93 96 97 97 97 97 97 97 98 98 98
92 92 87 86 87 85 82 79 77 73 75 84 90 90 91 91 87 83 82 84 88 94 95 95 96 97 96 96 96 96 97 97 97 97 97 97 97 97 97 97 97 97 97 97 96 96 97 97 97 97 97 97 97 97
96 94 88 81 81 73 72 70 69 71 78 86 90 93 93 94 94 93 91 93 96 97 97 97 96 96 97 97 97 98 97 97 97 97 97 97 97 98 97 97 97 97 97 97 97 97 97 97 96 95 93 92 89 84
97 94 92 87 81 71 67 66 64 72 78 81 83 85 88 92 93 95 96 95 94 94 93 94 96 97 97 97 96 97 97 97 96 97 96 96 92 92 90 89 88 88 87 86 86 86 86 83 78 72 65 58 50 44
94 91 85 79 75 68 68 69 68 72 77 77 79 82 87 91 94 94 94 96 96 96 94 95 96 95 90 89 88 87 83 82 80 81 83 84 84 84 86 86 85 85 84 84 81 75 68 60 53 47 40 35 30 27
88 84 82 80 79 78 78 79 78 83 86 90 89 88 92 94 95 95 94 87 84 86 85 83 78 73 71 71 71 72 74 75 75 75 76 76 77 77 77 76 74 69 62 54 46 40 32 27 26 25 24 23 22 22
82 80 79 79 79 81 86 90 88 89 90 93 94 87 83 78 75 70 65 60 59 60 59 62 62 63 64 64 65 66 67 67 67 67 67 67 66 62 55 49 43 37 33 31 28 27 27 28 28 26 24 23 23 22
65 66 69 69 69 74 82 82 78 76 74 70 61 57 54 49 44 43 45 49 53 57 58 59 59 59 58 60 61 60 60 60 59 57 53 49 46 43 39 36 34 31 29 29 28 26 24 24 25 26 27 26 26 25
40 38 33 32 37 49 46 45 41 41 41 43 44 47 45 39 36 40 48 51 52 53 53 54 55 56 56 55 54 52 50 49 48 47 47 46 43 40 35 31 28 27 27 26 26 27 27 26 26 26 28 26 26 27
32 34 30 34 33 33 37 39 39 38 41 41 43 46 42 35 40 45 48 50 53 54 54 54 54 53 51 51 51 51 53 54 55 53 51 45 35 30 28 28 28 29 31 32 29 28 27 28 27 27 26 26 25 26
40 40 35 34 33 32 34 34 34 35 35 38 40 38 34 36 41 45 48 49 51 51 52 52 52 52 52 51 51 51 51 51 49 43 38 35 33 34 34 34 32 27 27 26 27 27 26 26 26 27 27 27 27 28
44 42 37 34 32 29 32 32 31 33 36 40 40 39 37 41 44 45 47 50 51 53 54 54 55 54 53 53 54 53 47 42 38 33 30 30 30 28 27 26 24 23 22 22 22 23 25 26 27 27 28 28 28 29
43 38 37 32 29 28 31 32 33 35 36 37 36 40 41 42 43 46 48 51 53 54 54 53 53 52 50 50 48 46 43 37 30 30 30 30 28 25 23 24 23 23 23 25 27 27 27 27 28 28 29 30 30 31
40 33 25 28 27 29 34 35 36 37 37 35 36 41 42 43 46 48 50 51 51 52 52 52 51 49 46 44 41 38 24 23 29 29 30 31 31 29 25 25 24 24 25 27 28 28 30 30 31 30 28 29 30 31
31 25 26 34 39 39 36 35 35 36 35 33 36 41 44 46 48 50 51 52 51 51 50 48 45 43 42 39 28 22 24 28 29 31 31 31 31 27 26 24 25 26 28 29 28 29 30 30 29 29 29 30 31 33
27 28 36 39 39 36 36 34 32 32 33 36 38 39 41 46 49 51 51 51 50 47 44 41 40 39 35 29 27 26 28 29 27 26 25 25 24 24 24 25 27 29 29 28 29 29 28 28 29 29 30 31 32 34
33 35 33 37 42 41 39 36 37 39 40 42 43 43 44 46 48 48 48 48 46 42 40 38 33 31 29 28 25 26 26 26 25 24 24 24 24 25 26 28 29 30 29 30 30 28 28 29 30 30 31 32 35 36
38 35 36 37 40 41 40 40 39 43 46 47 47 47 48 46 47 46 46 45 42 40 37 34 32 30 26 26 26 25 26 26 26 25 26 26 27 28 29 29 30 30 31 31 30 30 30 31 31 31 34 35 35 36

GFSWCAN_prec_cthk_063.txt.gz
RH
90 95 96 96 94 94 95 95 96 95 91 94 98 98 98 98 98 98 96 95 94 88 82 80 76 78 85 88 93 93 97 97 96 94 90 84 79 70 63 58 64 63 61 62 60 68 67 50 55 52 42 35 43 41
95 93 93 93 91 93 94 90 86 86 88 86 87 95 98 98 98 98 97 96 98 98 97 91 87 84 80 81 90 94 89 89 87 87 85 81 79 77 67 64 61 62 60 62 59 57 55 57 53 47 41 37 35 36
96 98 98 98 94 88 79 75 73 76 77 82 83 88 93 98 98 98 97 98 99 98 95 96 95 89 89 90 92 94 91 86 84 78 79 78 76 71 71 65 58 55 53 54 51 46 46 45 47 47 42 38 37 38
98 95 86 83 81 76 72 72 74 73 74 77 80 84 89 95 98 98 99 97 99 98 97 89 83 90 90 95 96 93 93 91 87 84 82 79 77 73 72 65 61 55 56 55 54 50 49 49 51 48 42 40 40 41
90 91 90 86 83 80 76 78 81 80 75 73 78 87 91 91 98 98 99 99 98 97 95 92 87 82 92 94 92 92 95 95 92 88 84 82 82 82 81 76 70 67 66 63 60 63 59 53 52 52 51 48 51 47
93 95 91 78 74 75 77 80 84 89 94 86 89 94 95 95 97 98 98 98 98 98 97 97 89 87 88 89 92 95 97 96 94 90 91 86 82 84 87 78 73 71 73 73 70 68 65 65 63 58 58 57 54 54
89 79 80 80 82 82 85 91 91 97 93 93 99 98 99 99 94 95 93 82 91 98 98 98 92 90 90 94 97 98 96 96 96 94 88 88 89 88 80 72 70 72 72 73 75 74 74 74 72 69 67 64 66 63
81 85 89 87 86 85 87 91 95 95 99 96 98 99 99 99 99 97 95 91 95 98 97 97 96 92 92 97 98 95 97 98 98 96 97 95 90 93 89 77 75 75 74 74 78 81 80 79 78 78 74 69 69 72
85 92 90 85 87 91 94 97 97 98 96 97 99 99 98 99 98 96 95 96 98 98 93 91 89 88 87 92 95 98 97 98 97 95 96 98 97 93 79 77 74 74 74 75 82 88 85 81 83 81 82 80 80 79
90 95 87 87 93 93 93 92 95 96 98 97 99 99 99 99 97 97 99 99 99 98 95 90 95 93 90 90 88 90 90 94 95 91 95 95 97 94 82 75 76 72 71 74 82 87 87 83 81 87 89 87 86 89
95 95 95 92 92 95 99 96 92 89 91 98 97 93 97 99 98 98 96 94 92 92 88 90 91 94 88 88 85 86 83 87 90 87 92 87 83 79 77 79 77 73 72 76 81 85 87 88 89 95 96 95 95 96
95 98 97 97 92 88 88 94 94 92 86 80 82 97 98 98 97 92 95 95 89 97 93 89 91 97 99 98 95 95 97 91 89 86 90 78 71 73 73 75 75 78 81 83 83 83 84 86 86 85 89 97 97 97
92 94 94 94 99 85 86 87 93 92 88 86 86 86 88 82 86 86 92 93 92 95 95 98 97 97 95 93 90 92 88 90 88 88 79 71 79 82 86 87 88 88 88 89 86 85 85 86 87 84 84 94 97 97
94 91 89 90 92 85 83 84 84 82 81 80 83 85 81 85 84 86 85 87 88 89 93 93 93 93 88 79 83 77 83 81 80 76 74 79 85 88 90 94 96 95 95 94 91 90 91 90 90 92 94 97 96 95
93 93 93 87 85 80 78 82 84 86 80 80 79 83 82 82 84 85 87 84 85 84 85 82 78 78 79 78 77 77 78 79 76 77 78 79 84 89 93 93 94 96 97 97 96 95 93 92 95 97 97 97 97 97
94 91 90 88 85 84 79 74 71 72 75 76 78 80 81 79 77 76 76 75 77 81 78 75 79 80 85 82 82 85 80 82 82 83 84 85 86 91 93 95 95 96 97 97 97 97 97 97 97 97 97 97 97 97
87 89 88 86 83 83 84 77 71 73 77 80 86 85 85 84 83 80 80 79 81 82 81 79 81 86 83 83 86 85 83 82 83 84 85 87 92 94 95 95 95 97 97 97 97 98 97 97 97 98 97 97 97 96
86 82 87 85 83 79 76 75 73 82 91 91 91 88 87 85 83 85 85 85 88 89 87 90 86 87 91 91 94 96 97 98 98 98 97 97 97 97 97 97 97 98 98 98 98 98 98 98 97 95 89 82 74 68
83 81 78 83 80 78 77 75 74 84 92 94 95 93 90 88 88 88 91 93 90 90 91 91 92 94 96 97 96 97 97 97 97 97 97 97 97 97 97 97 97 98 98 98 98 98 94 88 79 72 66 62 56 53
80 76 72 73 71 70 73 74 72 79 89 94 92 92 90 88 89 90 91 95 95 94 94 93 96 97 97 97 96 95 95 93 91 88 85 83 82 82 82 80 79 78 78 76 70 62 55 48 45 42 37 33 28 26
74 71 69 66 65 67 71 71 76 81 86 89 92 95 97 96 96 96 95 94 93 96 95 93 84 71 65 63 63 63 64 65 65 66 66 68 70 71 74 76 76 70 63 54 47 43 37 34 32 28 25 22 21 21
70 69 68 66 66 68 72 77 78 81 84 90 94 94 95 94 93 91 89 85 76 65 58 58 61 62 62 62 62 64 64 66 67 67 67 67 67 65 62 56 49 44 40 39 36 32 28 26 26 25 23 22 22 22
64 62 63 67 69 72 82 85 86 91 90 95 92 90 89 83 73 61 54 50 51 54 56 57 57 57 57 59 60 60 60 60 61 59 56 50 46 44 43 42 41 38 32 28 26 25 26 27 28 28 26 26 26 26
59 63 68 73 77 87 88 87 85 81 77 73 64 59 53 47 42 43 48 51 53 54 56 57 58 57 58 58 56 53 49 46 44 44 45 46 43 41 37 32 29 28 27 28 28 28 27 27 27 28 27 27 27 27
65 76 76 79 74 71 65 59 52 45 46 45 44 45 42 37 41 48 51 52 53 55 57 57 57 55 52 50 49 49 49 49 48 46 42 39 33 29 29 29 28 28 28 29 29 29 28 28 28 27 27 27 26 25
53 54 46 43 39 36 38 38 38 39 37 38 39 39 36 38 44 50 51 52 53 54 55 54 53 52 52 52 52 51 49 46 41 35 31 28 28 27 26 26 26 25 26 27 27 27 27 27 28 28 27 27 28 29
37 39 36 35 34 31 33 33 32 32 34 37 37 36 36 45 48 50 52 54 54 54 55 55 55 54 51 50 48 44 39 34 28 23 21 22 22 22 22 24 25 26 27 27 27 27 28 28 28 27 28 30 31 32
35 34 33 31 29 29 31 32 32 34 36 38 35 39 43 46 50 52 54 55 56 56 55 53 51 50 48 44 41 38 32 24 22 23 25 26 26 25 24 25 26 26 26 27 28 29 30 30 30 31 32 32 32 32
35 31 26 29 28 29 32 34 36 38 38 34 35 41 45 48 51 54 55 57 57 57 55 52 50 48 44 41 37 26 22 25 26 26 26 25 25 26 24 25 25 25 25 26 28 29 30 29 31 32 31 32 32 31
34 31 28 31 32 34 35 36 39 38 33 33 37 43 47 51 54 56 58 58 58 57 56 54 49 44 42 34 25 24 26 26 27 26 25 24 23 23 24 24 24 25 26 27 29 30 31 32 31 30 31 31 30 31
37 33 32 34 36 36 36 39 41 37 35 38 41 42 46 50 54 57 58 58 58 56 52 48 45 42 37 31 28 27 27 27 26 26 27 26 26 25 25 25 26 27 28 29 30 32 33 32 32 32 32 31 30 30
38 36 33 35 37 37 39 41 40 40 42 43 44 44 47 50 54 56 57 56 54 51 49 46 41 36 32 29 27 26 26 27 28 29 29 29 28 29 28 28 28 29 30 31 33 33 33 33 32 32 30 30 29 29
41 37 35 36 36 36 38 38 38 42 43 44 45 46 48 51 54 55 54 54 51 49 45 41 36 29 28 27 26 27 29 31 33 34 35 34 35 35 35 34 34 34 34 33 34 34 33 32 32 31 30 30 31 33

GFSWCAN_prec_cthk_069.txt.gz
RH
87 79 86 95 96 96 95 96 97 98 97 94 90 87 81 75 63 50 50 79 89 93 84 84 84 81 79 87 95 92 93 95 96 96 92 83 80 78 67 65 68 57 58 59 65 71 71 68 60 65 81 78 75 68
85 94 94 92 91 90 91 95 97 97 98 97 98 96 88 79 73 75 76 80 89 98 90 81 75 84 86 87 95 96 93 98 96 90 87 87 79 81 68 68 74 70 50 59 47 52 61 70 77 73 71 69 65 57
98 98 98 97 94 93 93 93 93 93 95 97 98 98 98 98 99 97 91 87 96 98 95 85 72 72 81 88 95 97 89 90 91 93 98 92 88 77 78 74 69 71 76 65 77 66 80 69 71 64 64 59 54 49
99 96 92 88 87 88 89 86 85 88 92 93 97 98 98 98 98 99 97 95 98 96 93 82 75 70 72 77 83 90 96 94 93 97 92 92 87 76 83 88 67 78 64 59 66 82 74 68 66 58 55 50 48 46
88 81 79 77 76 77 82 89 88 84 83 84 82 95 98 97 98 99 98 98 97 93 93 82 82 75 73 80 89 95 98 97 98 96 93 89 86 84 76 79 73 67 68 64 73 75 69 70 66 60 55 54 52 51
80 77 76 76 79 82 78 78 88 89 80 82 78 85 93 97 99 99 98 98 97 94 98 98 84 81 85 90 92 97 98 99 97 95 90 88 88 87 86 83 89 85 80 76 80 76 70 64 64 61 59 59 58 58
86 83 77 80 78 81 84 82 79 90 86 83 81 83 84 89 96 97 93 85 93 99 99 95 93 92 90 90 88 96 98 97 96 95 95 88 89 86 83 86 94 87 77 74 71 66 69 68 66 68 69 69 67 65
89 87 91 87 86 85 83 88 86 86 91 87 86 84 87 90 93 98 92 87 93 98 98 97 93 93 90 92 96 94 96 97 96 93 88 85 83 86 90 85 82 81 81 77 74 72 73 72 69 67 68 71 73 72
88 91 90 92 92 91 93 95 94 91 93 91 90 91 92 92 94 95 95 96 97 97 96 97 96 98 96 96 97 98 98 97 93 95 89 86 89 91 86 82 81 79 78 76 75 74 72 71 66 64 64 65 69 72
89 85 89 93 96 98 96 96 95 96 100 95 90 95 94 96 96 96 99 98 99 98 97 94 96 94 92 95 95 98 96 95 95 90 87 91 86 85 85 84 85 84 82 80 77 75 73 71 70 68 67 67 69 70
85 90 91 94 97 97 94 96 97 97 97 96 97 95 91 99 98 98 98 98 97 96 89 91 90 91 90 93 97 94 97 93 87 90 90 88 82 82 82 80 83 82 80 81 80 79 79 77 75 72 70 70 71 74
87 93 89 91 91 98 99 98 97 98 98 95 93 95 97 97 97 98 98 94 89 88 88 88 87 92 90 91 93 92 95 92 90 89 91 87 79 78 79 80 82 83 76 75 75 75 73 69 69 72 77 79 77 77
85 91 89 91 93 96 96 98 95 94 95 95 96 96 97 96 97 89 86 83 81 80 81 83 87 87 86 89 91 93 90 90 83 86 82 73 70 72 76 79 80 79 79 78 75 75 78 82 86 88 88 90 91 91
83 83 88 91 95 95 92 91 94 94 92 92 92 88 89 83 76 77 79 77 76 76 77 83 86 86 89 91 94 90 87 92 90 84 78 81 85 83 82 81 79 77 75 78 82 86 88 90 89 90 93 94 96 97
85 81 83 83 85 87 86 82 81 82 81 79 78 79 79 77 79 81 83 88 90 88 85 83 85 84 88 95 92 90 92 87 82 80 80 78 76 77 78 79 79 80 84 85 83 84 89 91 91 91 92 93 96 97
95 94 86 85 86 89 91 92 93 85 74 73 74 77 84 90 89 90 93 97 97 96 92 87 89 95 96 91 86 83 78 77 79 79 81 83 83 84 83 84 83 82 83 83 86 88 90 90 91 93 95 95 96 97
95 89 91 94 96 95 90 89 89 90 91 82 80 90 90 93 96 97 98 98 98 98 95 91 92 92 85 83 82 81 82 83 83 84 85 88 91 91 91 90 90 91 94 96 97 97 97 97 97 97 98 97 97 94
95 91 89 87 88 81 79 82 83 88 87 83 78 85 90 90 90 92 94 96 95 90 83 82 78 79 80 81 80 81 84 87 89 93 95 97 97 97 94 93 91 90 89 88 87 87 87 88 90 90 85 79 74 70
88 88 87 87 85 82 81 85 85 82 82 83 82 82 81 79 78 80 80 80 80 78 77 76 80 80 82 85 88 93 96 97 97 97 92 86 79 75 73 72 72 75 77 78 79 80 80 78 77 75 70 68 66 64
85 86 86 85 83 81 80 83 86 84 82 82 81 79 78 79 81 81 82 81 80 82 87 90 94 96 96 98 97 94 86 73 64 62 63 64 65 67 68 69 69 71 73 76 77 73 67 61 56 53 52 53 53 48
84 81 85 86 84 83 82 80 84 91 89 87 84 81 81 81 84 89 89 91 92 95 95 95 85 72 64 60 58 58 60 61 63 63 64 65 66 66 66 66 67 67 65 61 54 48 46 46 45 45 43 40 36 32
79 75 79 78 78 78 80 80 82 86 85 85 83 82 83 86 89 92 94 94 93 86 68 58 56 56 57 58 59 58 59 59 60 60 59 59 59 60 59 55 49 45 44 44 44 43 42 39 36 33 32 31 31 32
73 73 73 74 77 79 84 86 87 87 88 88 88 88 91 92 91 87 76 66 59 56 54 56 57 56 56 56 57 57 57 56 55 54 53 50 47 46 45 43 41 37 35 31 30 32 31 30 30 33 33 35 36 37
70 71 75 78 79 84 83 83 82 84 87 87 86 88 86 73 59 53 50 51 55 56 56 57 57 57 57 57 56 53 51 48 47 46 45 45 43 41 38 34 30 29 28 28 29 29 29 29 28 32 33 36 37 39
67 71 73 76 78 79 79 80 82 84 85 75 65 55 50 46 48 51 52 55 55 56 56 57 56 55 55 53 49 48 47 47 47 45 44 41 37 34 31 28 27 27 28 30 32 30 30 31 32 33 34 36 37 37
67 73 77 78 77 75 73 71 68 64 54 48 45 44 45 45 48 52 54 55 56 57 57 56 55 54 53 53 52 50 49 47 44 42 36 33 32 31 31 30 35 36 30 30 31 31 32 32 33 35 36 37 36 32
72 79 78 71 63 54 53 53 46 41 39 40 42 43 40 44 50 53 56 57 57 57 57 56 56 55 54 51 50 46 41 37 33 29 27 24 22 22 27 31 32 31 27 26 30 32 33 34 35 36 37 37 37 37
70 64 49 43 41 40 40 37 35 36 38 40 36 39 41 46 52 55 55 57 57 57 56 56 55 53 52 48 44 40 34 28 28 27 24 24 23 24 23 24 24 24 24 24 27 26 32 35 37 38 38 39 39 38
45 35 31 34 34 35 33 32 34 38 40 38 36 38 42 46 50 54 55 56 57 58 57 54 52 49 45 43 40 35 35 37 35 29 30 33 35 36 30 30 30 27 27 29 29 28 29 31 33 36 38 40 40 39
33 33 29 32 32 32 34 35 36 38 37 39 38 41 45 48 51 54 55 56 57 58 59 57 54 51 48 43 32 31 30 27 25 26 35 37 38 33 33 34 35 35 33 32 33 35 33 34 35 37 39 41 42 42
35 33 32 31 34 36 36 36 35 35 36 38 41 42 43 46 49 51 54 56 56 58 58 53 50 48 43 39 40 38 35 24 24 26 29 30 31 33 34 36 37 37 36 36 37 38 38 38 41 40 39 37 35 34
37 34 33 34 37 38 38 40 39 40 40 40 42 43 44 45 47 49 53 58 61 60 56 53 51 46 37 32 30 27 24 25 27 30 31 32 33 36 38 38 38 38 37 37 37 37 37 37 37 37 37 36 36 36
40 39 38 40 42 42 41 41 39 41 40 40 42 43 43 43 45 49 57 61 60 57 54 49 41 35 32 30 27 25 26 28 31 32 33 34 37 38 38 38 38 39 39 39 40 40 40 41 40 40 40 40 40 41

GFSWCAN_prec_cthk_075.txt.gz
RH
31 24 29 52 73 87 86 90 91 93 94 92 87 81 85 75 59 55 57 67 72 74 76 73 70 76 80 88 97 92 91 93 79 81 75 66 74 73 87 97 81 77 81 73 80 81 80 86 91 98 96 95 93 90
26 29 56 80 92 97 98 98 96 96 95 95 93 88 84 83 81 69 52 57 72 80 73 70 70 67 74 87 92 98 96 98 82 71 73 82 88 92 87 98 92 86 73 69 59 67 83 82 92 92 90 88 86 79
31 59 79 89 96 98 98 98 97 97 97 99 96 93 92 87 87 83 71 58 63 68 68 75 66 69 70 78 90 98 93 98 90 88 93 94 97 96 93 86 97 88 74 81 72 89 87 86 87 89 88 88 86 81
60 77 87 93 94 95 94 93 93 94 95 97 98 97 95 92 87 85 83 76 55 54 70 68 67 67 69 75 80 85 97 96 97 94 98 97 99 97 98 98 98 99 88 93 99 98 91 89 91 89 83 84 84 81
81 90 91 91 90 82 76 74 76 80 86 90 97 98 97 97 97 91 90 96 83 81 85 78 61 57 64 74 76 80 90 98 96 89 95 97 96 96 97 97 97 98 98 98 98 99 97 98 96 90 86 78 75 68
94 92 86 79 77 75 73 71 69 70 70 86 88 97 97 98 98 99 97 97 94 96 93 85 76 63 62 72 71 72 83 86 88 92 93 90 94 97 98 97 98 98 96 97 98 97 95 93 88 83 79 73 67 61
87 82 82 79 76 74 73 77 76 71 70 73 89 93 98 99 98 98 93 85 92 97 98 94 87 70 62 69 71 69 74 80 87 91 92 91 92 97 99 98 98 98 97 91 93 95 92 86 86 81 76 69 65 63
82 77 76 75 72 74 77 79 82 77 74 76 91 94 99 99 99 99 97 89 91 98 97 88 89 97 76 72 70 68 79 89 87 89 92 94 94 97 95 96 97 96 94 91 87 83 80 79 79 77 73 68 66 64
79 78 76 77 77 78 83 88 89 84 85 89 99 97 99 98 97 98 97 95 94 94 93 89 89 97 88 80 90 89 96 94 92 91 90 95 98 97 96 96 96 93 91 90 88 87 84 81 76 74 73 71 69 69
82 80 84 85 85 85 97 99 97 97 96 93 99 99 99 99 98 99 99 98 98 96 92 91 92 95 92 94 92 98 96 97 98 94 95 96 96 92 91 91 90 88 88 86 84 82 81 79 78 77 75 73 71 69
84 89 89 89 91 96 98 99 99 96 99 99 98 98 98 98 98 98 97 98 94 92 84 86 92 98 95 97 96 94 95 94 96 94 95 93 91 90 86 84 82 83 81 80 80 79 79 77 73 69 67 67 67 68
90 90 86 91 93 97 98 99 99 99 95 88 85 94 98 99 98 97 97 95 89 86 85 88 90 99 98 97 95 94 97 98 98 98 99 95 88 88 87 84 79 76 73 72 72 73 74 74 74 73 74 74 74 73
93 96 91 98 93 98 99 99 99 98 92 93 94 98 97 96 93 90 92 89 90 88 90 91 96 98 97 99 97 97 96 97 93 96 96 91 92 89 84 83 79 77 74 72 72 73 73 74 73 72 72 73 74 75
98 93 95 95 96 94 94 98 98 95 91 94 88 88 91 85 84 83 81 81 84 86 87 91 95 94 96 95 95 90 94 94 96 93 89 88 86 84 82 78 75 73 71 69 69 69 69 70 70 71 71 74 75 77
93 90 92 98 98 98 97 94 89 87 86 86 80 84 84 77 80 81 83 82 84 86 85 86 88 88 91 90 88 86 88 92 91 88 87 88 85 81 78 76 74 72 72 72 72 72 72 72 72 73 75 77 79 81
88 88 89 92 93 94 92 90 89 86 86 81 81 82 81 78 79 79 80 80 80 86 85 82 83 84 86 84 82 86 89 90 90 88 85 81 77 76 77 77 77 76 75 76 77 80 80 79 77 76 75 75 75 75
87 89 91 89 88 89 92 97 94 89 87 86 88 85 81 79 78 77 77 77 77 81 81 82 80 83 81 79 80 83 84 86 85 80 78 76 76 79 81 82 84 85 83 80 75 68 63 61 61 61 60 57 53 53
97 96 98 98 98 94 89 90 86 83 87 86 86 85 81 81 78 77 79 82 82 77 74 79 77 79 83 83 86 84 81 80 79 79 81 86 91 94 91 84 72 62 58 57 57 59 60 61 63 62 59 54 53 51
97 98 98 98 94 90 92 91 87 83 87 86 89 90 91 89 87 90 93 88 80 77 76 79 87 90 87 85 83 82 80 80 85 92 96 93 78 62 58 57 58 57 58 59 60 60 61 63 63 59 53 50 49 48
95 91 94 98 87 84 88 89 89 89 93 96 97 97 97 97 97 97 96 95 90 85 89 90 90 89 85 83 80 83 89 94 92 77 59 58 58 57 57 57 57 58 59 60 60 60 56 51 48 45 42 43 42 40
89 91 93 94 88 85 84 83 85 90 94 96 97 97 97 97 96 92 88 86 83 85 86 84 83 84 90 94 85 75 64 54 53 53 54 55 55 55 56 57 59 60 58 55 53 49 46 41 36 31 29 30 30 29
89 91 90 86 85 83 79 80 79 80 81 80 82 83 85 86 85 83 84 84 90 92 94 96 92 77 58 54 55 54 55 56 55 54 53 53 54 55 55 53 51 49 46 44 41 36 31 31 30 27 28 28 29 30
92 91 87 84 82 78 81 81 78 77 76 76 77 79 83 85 88 88 90 93 96 94 69 53 51 51 53 54 54 55 53 52 52 52 52 51 50 48 45 42 39 38 35 32 27 27 27 27 27 28 29 32 32 36
81 80 86 84 80 83 79 78 76 76 77 76 77 83 87 87 87 90 97 91 69 54 51 52 52 53 54 54 53 52 49 46 45 46 46 45 44 40 36 33 31 28 26 25 26 28 29 29 29 31 31 31 33 36
78 81 81 80 78 77 78 80 82 80 80 79 81 84 88 93 90 66 58 54 54 55 56 55 55 55 53 51 49 47 49 49 46 45 45 42 39 37 38 36 30 28 28 28 30 30 30 31 30 31 32 33 34 36
79 78 80 77 78 78 77 79 80 83 83 85 87 87 80 61 50 55 55 55 56 55 56 56 54 53 53 51 49 48 49 48 45 42 35 35 36 36 33 29 29 30 32 30 28 32 35 34 34 33 34 35 36 38
78 78 77 79 81 81 81 81 81 82 81 78 66 52 47 48 52 56 58 56 55 56 55 55 54 53 52 53 52 49 45 45 42 39 33 31 28 23 22 27 30 32 31 29 30 33 35 37 38 38 38 38 39 40
71 75 78 80 81 80 81 75 70 65 59 52 46 49 50 50 53 56 56 54 53 53 53 53 52 52 52 52 49 42 38 35 35 37 36 34 29 26 26 25 26 27 29 33 36 36 37 36 37 38 40 42 42 42
70 72 76 79 75 72 68 62 55 51 50 49 45 45 46 49 48 49 51 51 50 49 48 48 49 50 51 51 47 43 40 43 43 37 35 30 30 31 30 28 29 31 35 36 39 41 42 42 42 42 43 44 44 44
77 74 67 64 62 58 57 51 49 46 46 44 40 42 42 43 47 48 48 48 47 46 46 45 45 49 52 48 40 37 37 36 33 29 28 29 30 29 28 30 32 34 35 36 37 39 40 42 42 45 47 47 47 47
62 52 50 50 54 55 48 44 42 40 39 35 35 36 39 42 44 47 48 49 48 48 46 46 50 54 53 48 43 41 40 33 27 22 22 23 25 26 28 30 32 33 35 36 37 38 37 38 38 39 39 39 39 38
44 41 40 44 47 45 44 38 37 39 39 38 39 40 41 42 45 47 48 49 48 46 47 49 53 53 48 43 41 37 33 28 23 22 23 24 25 25 27 30 32 34 36 36 36 36 36 36 35 34 35 37 38 41
39 37 38 38 40 42 43 41 42 45 46 46 47 47 46 46 46 47 47 47 47 49 50 52 54 47 41 40 37 33 28 24 22 22 22 23 24 26 29 31 33 34 34 35 35 33 33 35 37 40 43 45 49 54